GFSFLT2_con_mlcape_000.txt.gz
CAPE
971 937 835 813 867 866 752 575 275 129 52 15 10 0 0 0 0 0 0 0 0 0 0 0 0 0 0 0 0 0 0 0
1038 1061 1068 1020 883 731 532 318 138 103 40 49 5 0 0 0 0 0 0 0 0 0 0 0 0 0 0 0 0 0 0 0
956 994 1040 892 657 486 332 174 56 7 19 77 96 12 1 14 55 74 29 39 19 8 11 5 0 0 0 0 0 0 0 0
772 787 688 534 411 224 72 17 0 13 110 130 117 78 96 144 110 128 144 112 153 132 102 89 80 20 1 0 0 0 0 0
284 224 188 108 49 15 0 8 25 75 154 164 163 206 193 129 77 44 17 27 5 1 2 2 0 1 0 0 0 0 0 0
70 8 0 0 0 0 0 26 55 128 276 284 233 185 76 2 3 0 0 0 0 0 0 0 0 0 0 0 0 0 0 0
35 1 0 0 0 0 6 77 179 260 342 396 217 92 3 0 0 0 0 0 0 0 0 0 0 0 0 0 0 0 0 0
69 30 0 0 0 4 3 69 249 441 496 342 151 4 1 0 0 0 0 0 0 0 0 0 0 0 0 0 0 0 0 0
79 16 1 0 0 0 0 3 16 122 110 11 1 0 0 0 0 0 0 0 0 0 0 0 0 0 0 0 0 0 0 0
58 41 26 2 15 17 27 0 0 0 0 0 0 0 0 0 0 0 0 0 0 0 0 0 0 0 0 0 0 0 0 0
57 15 0 0 0 0 0 0 0 0 0 0 0 0 0 0 0 0 0 0 0 0 0 0 0 0 0 0 0 0 0 0
17 0 0 0 0 0 0 0 0 0 0 0 0 0 0 0 0 0 0 0 0 0 0 0 0 0 0 0 0 0 0 0
12 0 0 0 0 0 0 0 0 0 0 0 0 0 0 0 0 0 0 0 0 0 0 0 0 0 0 0 0 0 0 0
0 0 0 0 0 0 0 0 0 0 0 0 0 0 0 0 0 0 0 0 0 0 0 0 0 0 0 0 0 0 0 0
0 0 0 0 0 0 0 0 0 0 0 0 0 0 0 0 0 0 0 0 0 0 0 0 0 0 0 0 0 0 0 0
0 0 0 0 0 0 0 0 0 0 0 0 0 0 0 0 0 0 0 0 0 0 0 0 0 0 0 0 0 0 0 0
0 0 0 0 0 0 0 0 0 0 0 0 0 0 0 0 0 0 0 0 0 0 0 0 0 0 0 0 0 0 0 0
0 0 0 0 0 0 0 0 0 0 0 0 0 0 0 0 0 0 0 0 0 0 0 0 0 0 0 0 0 0 0 0
0 0 0 0 0 0 0 0 0 0 0 0 0 0 0 0 0 0 0 0 0 0 0 0 0 0 0 0 0 0 0 0
0 0 0 0 0 0 0 0 0 0 0 0 0 0 0 0 0 0 0 0 0 0 0 0 0 0 0 0 0 0 0 0

GFSFLT2_con_mlcape_003.txt.gz
CAPE
1126 1150 1095 954 834 870 895 632 391 276 191 67 0 0 0 0 0 0 0 0 0 0 0 0 0 0 0 0 0 0 0 0
1190 1255 1168 1054 1140 1068 913 631 351 230 61 35 0 0 0 0 1 0 7 0 0 0 0 0 0 0 0 0 0 0 0 0
939 1108 1194 1310 1241 1054 802 485 227 114 29 45 66 91 83 120 87 72 73 49 38 24 24 39 34 13 0 0 0 0 0 0
813 847 1081 1066 1015 852 642 407 240 147 120 154 202 211 238 264 289 180 136 92 69 40 19 35 79 133 57 0 0 0 0 0
774 890 962 873 706 513 261 109 69 74 149 210 295 342 482 456 310 179 104 43 34 0 0 1 12 4 0 0 0 0 0 0
688 586 429 312 182 81 21 24 54 150 292 367 469 459 280 42 11 0 0 0 0 0 0 0 0 0 0 0 0 0 0 0
202 113 66 45 21 6 1 55 151 257 375 560 579 380 118 1 0 0 0 0 0 0 0 0 0 0 0 0 0 0 0 0
50 16 6 17 15 51 47 0 7 143 215 55 54 10 5 0 0 0 0 0 0 0 0 0 0 0 0 0 0 0 0 0
36 0 6 31 18 10 0 0 5 0 0 0 0 0 0 0 0 0 0 0 0 0 0 0 0 0 0 0 0 0 0 0
32 11 2 0 0 0 0 0 0 0 0 0 0 0 0 0 0 0 0 0 0 0 0 0 0 0 0 0 0 0 0 0
38 0 0 0 0 0 0 0 0 0 0 0 0 0 0 0 0 0 0 0 0 0 0 0 0 0 0 0 0 0 0 0
0 0 0 0 0 0 0 0 0 0 0 0 0 0 0 0 0 0 0 0 0 0 0 0 0 0 0 0 0 0 0 0
0 0 0 0 0 0 0 0 0 0 0 0 0 0 0 0 0 0 0 0 0 0 0 0 0 0 0 0 0 0 0 0
43 1 0 0 0 0 0 0 0 0 0 0 0 0 0 0 0 0 0 0 0 0 0 0 0 0 0 0 0 0 0 0
0 0 0 0 0 0 0 0 0 0 0 0 0 0 0 0 0 0 0 0 0 0 0 0 0 0 0 0 0 0 0 0
0 0 0 0 0 0 0 0 0 0 0 0 0 0 0 0 0 0 0 0 0 0 0 0 0 0 0 0 0 0 0 0
0 0 0 0 0 0 0 0 0 0 0 0 0 0 0 0 0 0 0 0 0 0 0 0 0 0 0 0 0 0 0 0
0 0 0 0 0 0 0 0 0 0 0 0 0 0 0 0 0 0 0 0 0 0 0 0 0 0 0 0 0 0 0 0
0 0 0 0 0 0 0 0 0 0 0 0 0 0 0 0 0 0 0 0 0 0 0 0 0 0 0 0 0 0 0 0
0 0 0 0 0 0 0 0 0 0 0 0 0 0 0 0 0 0 0 0 0 0 0 0 0 0 0 0 0 0 0 0

GFSFLT2_con_mlcape_006.txt.gz
CAPE
793 768 761 857 861 800 767 571 459 307 153 40 0 0 0 0 0 0 0 0 0 0 0 0 0 0 0 0 0 0 0 0
1120 950 963 914 921 833 796 524 346 241 60 14 0 1 0 0 4 8 12 0 0 0 0 5 0 0 0 0 0 0 0 0
889 850 868 865 910 863 597 380 190 45 48 42 111 140 185 125 68 56 49 35 39 51 22 8 0 39 8 0 0 0 0 0
1000 1001 846 851 716 607 384 204 105 83 220 441 276 603 565 369 206 108 54 39 45 0 0 0 10 0 0 0 0 0 0 0
783 701 683 707 460 240 26 7 93 290 563 697 696 799 759 488 245 181 212 8 42 0 0 0 0 0 0 0 0 0 0 0
689 483 540 484 85 45 97 150 418 537 736 909 851 721 597 275 157 114 117 24 0 0 0 0 0 0 0 0 0 0 0 0
435 321 258 163 174 266 401 567 689 802 972 1016 557 109 74 193 149 22 0 0 0 0 0 0 0 0 0 0 0 0 0 0
246 86 185 412 492 621 222 90 115 355 779 393 122 6 0 15 4 0 0 0 0 0 0 0 0 0 0 0 0 0 0 0
195 252 456 257 113 75 22 23 33 67 257 262 138 45 4 0 0 0 0 0 0 0 0 0 0 0 0 0 0 0 0 0
179 246 212 11 0 0 0 1 2 5 0 0 0 0 0 0 0 0 0 0 0 0 0 0 0 0 0 0 0 0 0 0
369 176 1 0 0 0 0 0 0 0 0 0 0 0 0 0 0 0 0 0 0 0 0 0 0 0 0 0 0 0 0 0
373 123 21 112 50 0 0 0 0 0 0 0 0 0 0 0 0 0 0 0 0 0 0 0 0 0 0 0 0 0 0 0
386 194 119 173 16 0 0 0 0 0 0 0 0 0 0 0 0 0 0 0 0 0 0 0 0 0 0 0 0 0 0 2
347 240 182 5 0 0 0 0 0 0 0 0 0 0 0 0 0 0 0 0 0 0 0 0 0 0 1 0 0 0 0 0
353 73 0 0 0 0 0 0 0 0 0 0 0 0 0 0 0 0 0 0 0 0 0 0 0 0 2 0 0 0 0 0
3 0 0 0 0 0 0 0 0 0 0 0 0 0 0 0 0 0 0 0 0 0 0 0 0 0 0 0 0 0 0 0
0 0 0 0 0 0 0 0 0 0 0 0 0 0 0 0 0 0 0 0 0 1 0 0 0 0 0 0 0 0 0 0
0 0 0 0 0 0 0 0 0 0 0 0 0 0 0 0 0 0 0 2 11 1 0 0 0 0 0 0 0 0 0 0
0 0 0 0 0 0 0 0 0 0 0 0 0 0 0 0 0 0 0 25 2 0 0 0 1 0 0 0 0 1 1 3
0 0 0 0 0 0 0 0 0 0 0 0 0 0 0 0 0 0 5 4 0 1 18 22 7 2 0 4 8 7 5 9

GFSFLT2_con_mlcape_009.txt.gz
CAPE
500 606 529 499 542 622 543 417 208 94 1 0 0 0 0 0 0 0 9 0 2 11 0 0 0 0 0 0 0 0 0 0
861 852 815 751 772 651 470 264 81 5 1 0 0 0 0 0 2 1 11 20 35 29 2 0 0 0 1 0 0 0 0 0
869 795 695 596 693 565 273 87 0 0 5 0 77 242 120 69 3 3 12 8 2 1 0 0 0 10 48 0 0 0 0 0
709 750 731 727 510 400 230 31 22 61 300 250 270 365 179 0 27 0 0 0 4 0 0 0 8 0 6 0 0 0 0 0
682 768 667 523 305 85 8 1 57 334 522 442 586 400 464 283 188 213 232 107 94 9 21 14 2 0 0 0 0 0 0 0
542 423 440 313 46 6 12 279 372 398 665 684 652 479 440 310 245 183 130 117 22 20 35 1 0 0 0 0 0 0 0 0
328 305 273 261 161 355 532 640 753 914 946 771 695 416 168 74 29 0 52 16 12 13 13 0 0 0 0 0 0 0 0 0
259 113 238 468 656 595 309 278 368 332 661 953 609 320 161 64 46 31 9 6 2 0 0 0 0 0 0 0 0 0 0 0
243 497 587 530 388 150 74 50 37 131 401 774 896 563 316 76 2 0 9 0 0 0 0 0 0 0 0 0 0 0 0 0
427 589 473 265 98 0 6 47 32 17 0 3 0 0 0 0 0 0 0 0 0 0 0 0 0 0 0 0 0 0 0 0
434 513 350 272 9 57 2 0 0 0 0 0 0 0 0 0 0 0 0 0 0 0 0 0 0 0 0 0 0 0 0 0
615 478 245 180 377 23 0 0 0 0 0 0 0 0 0 0 0 0 0 0 0 0 0 0 0 1 0 0 0 0 0 0
743 521 425 503 156 19 0 0 0 0 0 0 0 0 0 0 0 0 0 0 0 1 5 6 0 0 0 0 0 0 0 0
740 622 533 141 23 0 3 0 0 0 0 0 0 0 0 0 0 0 0 0 0 0 5 4 0 0 0 0 0 0 0 0
689 482 138 4 0 0 0 0 0 0 0 0 0 0 0 0 0 0 0 0 0 0 0 3 0 0 0 0 0 0 0 0
308 50 0 0 0 0 0 0 0 0 0 0 0 0 0 0 0 0 0 0 0 0 0 1 0 0 0 0 0 0 0 0
6 0 0 0 0 0 0 0 0 0 0 0 0 0 0 0 0 0 0 0 0 1 10 11 7 9 6 0 0 0 0 0
0 0 0 0 0 0 0 0 0 0 0 0 0 0 0 0 0 0 0 0 0 11 17 14 12 4 0 0 2 1 2 4
0 0 0 0 0 0 0 0 0 0 0 0 0 0 0 0 0 0 0 0 8 4 2 7 5 5 2 1 7 10 15 13
0 0 0 0 0 0 0 0 0 0 0 0 0 0 0 0 0 0 1 8 6 13 27 32 14 0 9 21 20 14 17 11

GFSFLT2_con_mlcape_012.txt.gz
CAPE
5 178 420 436 395 351 244 90 22 5 0 0 0 0 0 0 0 0 0 0 0 0 0 0 0 0 0 0 0 0 0 8
127 230 133 555 403 224 89 45 17 0 0 0 0 0 0 1 19 0 0 0 0 0 0 0 0 0 0 0 0 0 0 0
217 269 449 555 397 170 64 4 0 0 0 1 3 78 51 116 13 0 0 0 0 0 0 0 0 12 1 0 0 0 0 0
389 484 476 477 289 177 5 0 18 123 102 120 313 389 22 15 77 0 0 20 0 16 0 0 0 0 0 0 0 0 0 0
554 508 624 517 320 194 46 99 205 455 400 548 408 524 342 282 225 426 174 139 110 44 30 26 2 0 0 0 0 0 0 0
663 560 173 95 32 11 26 235 409 481 605 510 510 596 441 240 121 2 0 43 40 54 35 0 0 0 0 0 0 0 0 0
296 305 147 105 84 502 586 681 743 788 901 690 645 380 100 19 9 23 61 14 1 0 0 0 0 0 0 0 0 0 0 0
290 215 267 389 632 404 285 310 282 232 646 858 697 397 161 57 40 0 0 0 0 0 0 0 0 0 0 0 0 0 0 0
106 234 725 633 392 244 149 0 76 294 489 625 606 114 11 0 0 0 0 0 0 0 0 0 0 0 0 0 0 0 0 0
336 589 566 373 128 3 7 91 49 0 0 0 0 0 0 0 0 0 0 0 0 0 0 0 0 0 0 0 0 0 0 0
602 550 359 16 14 44 95 3 0 0 0 0 0 0 0 0 0 0 0 0 0 0 0 0 0 0 0 0 0 0 0 0
612 552 410 40 227 2 0 0 0 0 0 0 0 0 0 0 0 0 0 0 0 0 0 0 0 0 0 0 0 0 0 0
588 467 341 252 167 0 0 0 0 0 0 0 0 0 0 0 0 0 0 0 0 0 0 0 0 0 0 0 0 0 0 0
687 497 456 525 66 5 2 0 0 0 0 0 0 0 0 0 0 0 0 0 0 0 0 0 0 0 0 0 0 0 0 0
783 600 536 31 0 0 0 0 0 0 0 0 0 0 0 0 0 0 0 0 0 0 0 0 0 0 0 0 0 0 0 0
737 492 2 0 0 0 0 0 0 0 0 0 0 0 0 0 0 0 0 0 0 0 0 0 0 0 0 0 0 0 0 0
358 0 0 0 0 0 0 0 0 0 0 0 0 0 0 0 0 0 0 0 0 0 0 1 0 0 0 0 0 0 0 0
0 0 0 0 0 0 0 0 0 0 0 0 0 0 0 0 0 0 0 0 0 1 0 0 0 0 0 0 0 0 0 0
0 0 0 0 0 0 0 0 0 0 0 0 0 0 0 0 0 0 0 0 0 0 0 0 0 0 0 0 0 0 0 0
0 0 0 0 0 0 0 0 0 0 0 0 0 0 0 0 0 0 0 0 0 0 0 0 6 5 0 0 1 0 7 5

GFSFLT2_con_mlcape_015.txt.gz
CAPE
23 104 2 132 235 90 39 20 0 0 0 0 0 0 0 0 0 0 0 0 0 0 0 0 0 0 0 0 0 0 0 0
21 73 90 251 231 81 22 1 0 0 0 0 0 0 0 0 0 0 0 0 0 0 0 0 0 0 0 0 0 0 0 0
1 0 137 202 145 32 1 0 0 0 0 0 0 0 13 20 0 0 0 0 0 0 0 0 0 0 0 0 0 0 0 0
0 20 266 202 95 9 0 0 0 0 6 29 24 76 16 11 1 0 0 0 0 5 18 0 0 0 0 0 0 0 0 0
44 223 264 212 26 0 0 2 33 85 114 113 214 117 76 27 4 4 1 28 10 3 0 0 0 0 0 0 0 0 0 0
215 375 306 162 82 47 17 105 237 234 334 219 253 151 29 0 0 0 0 0 0 0 0 0 0 0 0 0 0 0 0 0
294 223 213 87 99 112 335 400 454 566 455 314 212 47 0 1 0 0 0 0 0 0 0 0 0 0 0 0 0 0 0 0
84 2 61 246 157 154 95 51 77 259 442 314 108 15 0 0 0 0 0 0 0 0 0 0 0 0 0 0 0 0 0 0
41 83 220 166 119 28 0 3 57 153 36 2 10 0 0 0 0 0 0 0 0 0 0 0 0 0 0 0 0 0 0 0
34 387 234 113 13 0 0 0 0 0 0 0 0 0 0 0 0 0 0 0 0 0 0 0 0 0 0 0 0 0 0 0
353 309 158 17 0 8 3 0 0 0 0 0 0 0 0 0 0 0 0 0 0 0 0 0 0 0 0 0 0 0 0 0
403 194 10 0 13 0 0 0 0 0 0 0 0 0 0 0 0 0 0 0 0 0 0 0 0 0 0 0 0 0 0 0
418 187 0 43 0 0 0 0 0 0 0 0 0 0 0 0 0 0 0 0 0 0 0 0 0 0 0 0 0 0 0 0
440 318 149 101 0 0 0 0 0 0 0 0 0 0 0 0 0 0 0 0 0 0 0 0 0 0 0 0 0 0 0 0
432 326 121 29 0 0 0 0 0 0 0 0 0 0 0 0 0 0 0 0 0 0 0 0 0 0 0 0 0 0 0 0
474 376 152 1 0 0 0 0 0 0 0 0 0 0 0 0 0 0 0 0 0 0 0 0 0 0 0 0 0 0 0 0
555 32 0 0 0 0 0 0 0 0 0 0 0 0 0 0 0 0 0 0 0 0 0 0 0 0 0 0 0 0 0 0
7 0 0 0 0 0 0 0 0 0 0 0 0 0 0 0 0 0 0 0 0 0 0 0 0 0 0 0 0 0 0 0
0 0 0 0 0 0 0 0 0 0 0 0 0 0 0 0 0 0 0 0 0 0 0 0 0 0 0 0 0 0 0 0
0 0 0 0 0 0 0 0 0 0 0 0 0 0 0 0 0 0 0 0 0 0 0 0 0 0 0 0 0 0 0 0

GFSFLT2_con_mlcape_018.txt.gz
CAPE
6 0 1 36 73 50 15 0 0 0 0 0 0 0 0 0 0 0 0 0 0 0 0 0 0 0 0 0 0 0 0 0
0 0 0 38 123 55 0 0 0 0 0 0 0 0 0 0 0 0 0 0 0 0 0 0 0 0 0 0 0 0 0 0
0 4 42 114 142 17 0 0 0 0 0 0 0 3 1 0 0 0 0 0 0 0 0 0 0 0 0 0 0 0 0 0
6 0 35 148 70 4 0 0 0 0 0 0 0 0 6 2 0 0 0 6 0 0 0 0 0 0 0 0 0 0 0 0
0 21 76 126 21 0 0 0 0 0 5 8 42 3 10 1 1 0 0 0 0 0 0 0 0 0 0 0 0 0 0 0
0 48 168 60 0 0 0 2 19 116 111 98 21 0 0 0 0 0 0 0 0 0 0 0 0 0 0 0 0 0 0 0
3 122 176 22 0 0 6 104 261 284 250 119 7 0 0 0 0 0 0 0 0 0 0 0 0 0 0 0 0 0 0 0
163 173 127 18 16 20 71 250 295 242 159 31 0 0 0 0 0 0 0 0 0 0 0 0 0 0 0 0 0 0 0 0
166 157 147 55 52 5 81 253 103 62 29 1 0 0 0 0 0 0 0 0 0 0 0 0 0 0 0 0 0 0 0 0
33 157 78 40 0 0 0 7 0 0 0 0 0 0 0 0 0 0 0 0 0 0 0 0 0 0 0 0 0 0 0 0
202 163 75 8 0 0 0 0 0 0 0 0 0 0 0 0 0 0 0 0 0 0 0 0 0 0 0 0 0 0 0 0
257 89 1 0 0 0 0 0 0 0 0 0 0 0 0 0 0 0 0 0 0 0 0 0 0 0 0 0 0 0 0 0
313 131 0 0 0 0 0 0 0 0 0 0 0 0 0 0 0 0 0 0 0 0 0 0 0 0 0 0 0 0 0 0
332 106 7 0 0 0 0 0 0 0 0 0 0 0 0 0 0 0 0 0 0 0 0 0 0 0 0 0 0 0 0 0
351 63 0 0 0 0 0 0 0 0 0 0 0 0 0 0 0 0 0 0 0 0 0 0 0 0 0 0 0 0 0 0
425 203 7 29 0 0 0 0 0 0 0 0 0 0 0 0 0 0 0 0 0 0 0 0 0 0 0 0 0 0 0 0
418 291 158 0 0 0 0 0 0 0 0 0 0 0 0 0 0 0 0 0 0 0 0 0 0 0 0 0 0 0 0 0
357 76 10 0 0 0 0 0 0 0 0 0 0 0 0 0 0 0 0 0 0 0 0 0 0 0 0 0 0 0 0 0
19 0 0 0 0 0 0 0 0 0 0 0 0 0 0 0 0 0 0 0 0 0 0 0 0 0 0 0 0 0 0 0
0 0 0 0 0 0 0 0 0 0 0 0 0 0 0 0 0 0 0 0 0 0 0 0 0 0 0 0 0 0 0 0

GFSFLT2_con_mlcape_021.txt.gz
CAPE
1 3 0 0 86 58 9 41 2 13 35 56 21 3 0 0 0 0 0 0 0 0 0 0 0 0 0 0 0 0 0 0
0 0 18 21 50 16 0 0 0 10 25 6 0 0 0 0 0 0 0 0 0 0 0 0 0 0 0 0 0 0 0 0
0 0 0 1 10 22 0 0 0 8 7 1 0 1 0 0 0 0 0 0 0 0 0 0 0 0 0 0 0 0 0 0
0 0 0 119 208 59 5 2 17 3 1 0 0 0 0 0 0 0 0 0 0 0 0 0 0 0 0 0 0 0 0 0
0 2 68 184 113 1 0 0 0 0 0 0 1 7 0 0 0 0 0 0 0 0 0 0 0 0 0 0 0 0 0 0
0 11 110 195 59 3 0 0 0 0 1 50 16 0 0 0 0 0 0 0 0 0 0 0 0 0 0 0 0 0 0 0
3 2 163 187 0 0 0 0 35 112 24 34 4 0 0 0 0 0 0 0 0 0 0 0 0 0 0 0 0 0 0 0
13 59 246 138 0 0 0 104 243 196 139 29 0 0 0 0 0 0 0 0 0 0 0 0 0 0 0 0 0 0 0 0
39 148 212 33 0 0 15 247 212 185 64 0 0 0 0 0 0 0 0 0 0 0 0 0 0 0 0 0 0 0 0 0
129 206 174 41 0 5 38 165 118 46 0 0 0 0 0 0 0 0 0 0 0 0 0 0 0 0 0 0 0 0 0 0
217 187 115 20 9 56 68 31 3 0 0 0 0 0 0 0 0 0 0 0 0 0 0 0 0 0 0 0 0 0 0 0
197 162 48 7 0 0 0 0 0 0 0 0 0 0 0 0 0 0 0 0 0 0 0 0 0 0 0 0 0 0 0 0
143 59 8 0 0 0 0 0 0 0 0 0 0 0 0 0 0 0 0 0 0 0 0 0 0 0 0 0 0 0 0 0
124 99 8 0 0 0 0 0 0 0 0 0 0 0 0 0 0 0 0 0 0 0 0 0 0 0 0 0 0 0 0 0
153 120 26 0 0 0 0 0 0 0 0 0 0 0 0 0 0 0 0 0 0 0 0 0 0 0 0 0 0 0 0 0
149 139 62 5 0 0 0 0 0 0 0 0 0 0 0 0 0 0 0 0 0 0 0 0 0 0 0 0 0 0 0 0
99 116 48 11 0 0 0 0 0 0 0 0 0 0 0 0 0 0 0 0 0 0 0 0 0 0 0 0 0 0 0 0
177 213 67 4 0 0 0 0 0 0 0 0 0 0 0 0 0 0 0 0 0 0 0 0 0 0 0 0 0 0 0 0
186 212 126 5 0 0 0 0 0 0 0 0 0 0 0 0 0 0 0 0 0 0 0 0 0 0 0 0 0 0 0 0
289 141 17 0 0 0 0 0 0 0 0 0 0 0 0 0 0 0 0 0 0 0 0 0 0 0 0 0 0 0 0 0

GFSFLT2_con_mlcape_024.txt.gz
CAPE
1 0 8 19 80 97 108 78 184 218 272 184 59 18 1 0 0 0 0 0 0 0 0 0 0 0 0 0 0 0 0 0
3 0 1 56 96 123 65 75 119 149 55 20 10 4 4 0 0 0 0 0 0 0 0 0 0 0 0 0 0 0 0 0
3 0 0 0 55 34 34 73 72 27 23 25 7 2 0 0 0 0 0 0 0 0 0 0 0 0 0 0 0 0 0 0
0 0 0 0 2 71 3 4 6 12 6 5 0 0 0 0 0 0 0 0 0 0 0 0 0 0 0 0 0 0 0 0
3 0 0 0 26 58 1 0 0 0 0 0 2 1 0 0 0 0 0 0 0 0 0 0 0 0 0 0 0 0 0 0
0 0 13 45 61 4 0 0 0 0 0 1 8 0 0 0 0 0 0 0 0 0 0 0 0 0 0 0 0 0 0 0
0 0 24 133 35 0 0 0 0 0 0 2 0 0 0 0 0 0 0 0 0 0 0 0 0 0 0 0 0 0 0 0
0 0 76 189 0 0 0 0 0 0 16 6 0 0 0 0 0 0 0 0 0 0 0 0 0 0 0 0 0 0 0 0
0 0 139 179 0 0 0 0 100 115 37 0 0 0 0 0 0 0 0 0 0 0 0 0 0 0 0 0 0 0 0 0
0 56 142 167 0 0 0 77 95 61 20 0 0 0 0 0 0 0 0 0 0 0 0 0 0 0 0 0 0 0 0 0
63 91 146 88 0 0 0 68 46 7 0 0 0 0 0 0 0 0 0 0 0 0 0 0 0 0 0 0 0 0 0 0
125 145 118 48 5 0 0 8 0 0 0 0 0 0 0 0 0 0 0 0 0 0 0 0 0 0 0 0 0 0 0 0
138 144 63 65 9 7 6 34 0 0 0 0 0 0 0 0 0 0 0 0 0 0 0 0 0 0 0 0 0 0 0 0
148 179 91 56 16 0 0 0 0 0 0 0 0 0 0 0 0 0 0 0 0 0 0 0 0 0 0 0 0 0 0 0
222 138 44 12 0 0 0 0 0 0 0 0 0 0 0 0 0 0 0 0 0 0 0 0 0 0 0 0 0 0 0 0
212 56 19 0 0 0 0 0 0 0 0 0 0 0 0 0 0 0 0 0 0 0 0 0 0 0 0 0 0 0 0 0
245 99 25 1 0 0 0 0 0 0 0 0 0 0 0 0 0 0 0 0 0 0 0 0 0 0 0 0 0 0 0 0
203 143 70 1 0 0 0 0 0 0 0 0 0 0 0 0 0 0 0 0 0 0 0 0 0 0 0 0 0 0 0 0
173 154 43 3 0 0 0 0 0 0 0 0 0 0 0 0 0 0 0 0 0 0 0 0 0 0 0 0 0 0 0 0
120 124 46 0 0 0 0 0 0 0 0 0 0 0 0 0 0 0 0 0 0 0 0 0 0 0 0 0 0 0 0 0

GFSFLT2_con_mlcape_030.txt.gz
CAPE
36 1 3 30 56 71 162 200 210 237 217 208 144 130 75 55 8 0 0 0 0 0 0 0 0 0 0 0 0 0 0 0
1 0 0 0 33 192 282 262 262 216 180 97 86 23 12 7 0 0 0 0 0 0 0 0 0 0 0 0 0 0 0 0
3 0 6 3 16 90 291 342 251 174 109 72 29 18 2 0 0 0 0 0 0 0 0 0 0 0 0 0 0 0 0 0
0 0 0 0 8 27 263 295 171 181 133 83 72 73 12 0 0 0 0 0 0 0 0 0 0 0 0 0 0 0 0 0
2 1 5 0 6 109 196 159 155 164 98 65 89 98 38 54 13 0 0 0 0 0 0 0 0 0 0 0 0 0 0 0
4 0 0 0 0 3 32 46 59 81 59 92 117 54 45 7 4 0 0 0 0 0 0 0 0 0 0 0 0 0 0 0
0 0 0 0 0 1 36 99 72 31 20 40 24 0 13 3 0 0 0 0 0 0 0 0 0 0 0 0 0 0 0 0
0 0 0 4 16 65 17 26 0 8 100 215 176 14 8 0 0 0 0 0 0 0 0 0 0 0 0 0 0 0 0 0
0 11 28 0 65 150 0 1 2 48 252 367 247 36 0 0 0 0 0 0 0 0 0 0 0 0 0 0 0 0 0 0
9 29 40 48 127 89 0 0 21 170 354 402 188 23 0 0 0 0 0 0 0 0 0 0 0 0 0 0 0 0 0 0
7 16 83 242 369 75 0 31 247 530 560 426 144 8 0 0 0 0 0 0 0 0 0 0 0 0 0 0 0 0 0 0
54 127 281 475 401 76 1 128 446 654 591 374 59 0 0 0 0 0 0 0 0 0 0 0 0 0 0 0 0 0 0 0
133 132 216 470 365 49 14 186 443 591 576 302 25 0 0 0 0 0 0 0 0 0 0 0 0 0 0 0 0 0 0 0
301 316 392 486 282 45 61 170 396 593 407 203 7 0 0 0 0 0 0 0 0 0 0 0 0 0 0 0 0 0 0 0
308 379 453 460 275 82 251 362 177 289 76 22 9 0 0 0 0 0 0 0 0 0 0 0 0 0 0 0 0 0 0 0
381 369 450 548 465 293 192 219 294 208 41 13 0 0 0 0 0 0 0 0 0 0 0 0 0 0 0 0 0 0 0 0
635 644 598 572 589 411 303 360 417 425 14 0 0 0 0 0 0 0 0 0 0 0 0 0 0 0 0 0 0 0 0 0
679 814 741 596 637 555 473 478 546 185 0 0 0 0 0 0 0 0 0 0 0 0 0 0 0 0 0 0 0 0 0 0
963 959 816 729 705 630 657 658 475 55 0 0 0 0 0 0 0 0 0 0 0 0 0 0 0 0 0 0 0 0 0 0
1167 1047 1040 890 773 634 448 279 59 0 0 0 0 0 0 0 0 0 0 0 0 0 0 0 0 0 0 0 0 0 0 0

GFSFLT2_con_mlcape_033.txt.gz
CAPE
304 156 195 244 151 151 144 207 271 329 409 307 154 125 92 36 0 0 0 0 0 0 0 0 0 0 0 0 0 0 0 0
0 16 51 115 126 204 232 221 333 345 297 182 122 85 43 14 0 0 0 0 0 0 0 0 0 0 0 0 0 0 0 0
0 0 5 43 65 207 280 340 287 265 177 48 50 44 48 84 73 0 0 0 0 0 0 0 0 0 0 0 0 0 0 0
2 0 0 0 0 5 19 21 12 149 75 127 95 84 157 97 55 1 0 0 0 0 0 0 0 0 0 0 0 0 0 0
2 0 0 0 0 0 0 64 155 173 218 207 234 196 135 139 28 0 0 0 0 0 0 0 0 0 0 0 0 0 0 0
5 5 0 0 0 0 37 36 131 193 214 254 210 200 232 226 87 6 0 0 0 0 0 0 0 0 0 0 0 0 0 0
1 0 0 0 2 1 42 60 99 107 158 175 155 214 199 146 94 13 0 0 0 0 0 0 0 0 0 0 0 0 0 0
0 0 0 0 0 0 39 100 26 72 86 107 143 110 176 140 77 0 0 0 0 0 0 0 0 0 0 0 0 0 0 0
0 0 0 0 0 0 7 0 23 71 65 224 242 87 172 119 65 0 0 0 0 0 0 0 0 0 0 0 0 0 0 0
0 0 2 0 1 19 71 50 60 49 212 458 415 296 222 130 34 0 0 0 0 0 0 0 0 0 0 0 0 0 0 0
2 6 0 21 69 145 59 34 117 112 322 494 513 359 190 144 59 0 0 0 0 0 0 0 0 0 0 0 0 0 0 0
21 46 44 40 169 189 16 0 21 147 546 613 602 381 162 126 47 0 0 0 0 0 0 0 0 0 0 0 0 0 0 0
4 22 48 143 179 96 2 0 43 356 575 652 545 330 143 80 17 0 0 0 0 0 0 0 0 0 0 0 0 0 0 0
74 53 125 186 80 89 0 0 45 330 569 596 559 417 120 47 6 0 0 0 0 0 0 0 0 0 0 0 0 0 0 0
183 191 224 302 232 141 1 0 124 295 493 578 572 401 142 24 1 0 0 0 0 0 0 0 0 0 0 0 0 1 0 0
308 286 278 328 311 158 8 66 118 342 455 514 478 380 145 22 0 0 0 0 0 0 0 0 0 0 0 0 0 0 0 0
355 368 398 423 495 347 131 225 267 319 432 507 369 343 117 6 0 0 0 0 0 0 0 0 0 0 0 0 0 0 0 0
444 417 381 446 559 610 531 466 417 397 652 481 351 104 1 0 0 0 0 0 0 0 0 0 0 0 0 0 0 0 0 0
765 642 581 581 633 713 752 642 589 598 702 377 34 0 0 0 0 0 0 0 0 0 0 0 0 0 0 0 0 0 0 0
1168 982 911 759 866 801 854 830 899 985 774 279 0 0 0 0 0 0 0 0 0 0 0 0 0 0 0 0 0 0 0 0

GFSFLT2_con_mlcape_039.txt.gz
CAPE
228 214 236 46 1 5 295 461 326 330 302 379 492 587 581 232 105 8 0 0 0 0 0 0 0 0 0 0 0 0 0 0
163 99 104 202 126 285 419 380 162 72 38 81 143 235 273 178 75 16 0 0 0 0 0 0 0 0 0 0 0 0 0 0
51 59 70 66 33 255 415 250 111 72 17 0 6 43 96 81 42 13 0 0 0 0 0 0 0 0 0 0 0 0 0 0
1 0 1 0 0 76 199 98 36 11 1 0 0 4 22 54 55 24 3 0 0 0 0 0 0 0 0 0 0 0 0 0
0 0 0 2 2 3 48 47 7 17 30 20 63 59 13 32 50 24 0 0 0 0 0 0 0 0 0 0 0 0 0 0
1 0 0 0 0 0 17 10 19 36 52 97 96 80 18 8 2 0 0 0 0 0 0 0 0 0 0 0 0 0 0 0
3 0 0 0 0 1 3 5 55 85 138 126 145 58 35 29 1 0 0 0 0 0 0 0 0 0 0 0 0 0 0 0
3 0 0 0 0 0 0 10 35 12 117 115 147 142 37 20 40 0 0 0 0 0 0 0 0 0 0 0 0 0 0 0
2 0 0 0 0 0 0 2 5 13 42 101 108 126 145 165 112 38 2 0 0 0 0 0 0 0 0 0 0 0 0 0
0 0 0 0 0 0 0 0 0 0 0 48 76 101 118 124 61 31 0 0 0 0 0 0 0 0 0 0 0 0 0 0
0 0 0 0 0 0 0 0 0 0 0 0 26 114 71 82 73 26 0 0 0 0 0 0 0 0 0 0 0 0 0 0
0 0 0 0 0 0 0 0 0 0 1 12 12 89 189 137 98 63 0 0 0 0 0 0 0 0 0 0 0 0 0 0
0 0 0 0 0 0 0 0 0 0 4 37 130 148 237 188 116 100 0 0 0 0 0 0 0 0 0 0 0 0 0 0
0 0 0 0 0 0 0 0 0 0 0 0 111 206 206 194 82 19 0 0 0 0 0 0 0 0 0 0 0 0 0 0
0 0 0 0 0 0 0 0 0 0 0 0 96 170 102 87 71 7 0 0 0 0 0 0 0 0 0 0 0 0 0 0
0 0 0 0 0 0 0 0 0 0 0 18 109 171 55 57 114 50 0 0 0 0 0 0 0 0 0 0 0 0 0 0
0 0 0 0 0 0 0 0 0 0 0 0 73 122 176 182 59 24 0 0 0 0 0 0 0 0 0 0 0 0 0 0
0 0 0 0 0 0 4 5 0 0 0 77 181 235 235 167 90 30 5 0 0 0 0 0 0 0 0 0 0 0 0 0
0 0 0 0 0 0 7 3 0 0 0 0 237 311 194 177 119 23 0 0 0 0 0 0 0 0 0 0 0 0 0 0
19 6 6 8 3 43 36 27 42 13 22 66 207 184 150 35 5 0 0 0 0 0 0 0 0 0 0 0 0 0 0 0

GFSFLT2_con_mlcape_045.txt.gz
CAPE
389 202 165 0 0 3 138 385 349 484 389 341 180 0 0 0 0 0 0 0 0 0 0 0 0 0 0 0 0 0 0 0
267 216 69 1 0 26 151 195 451 571 437 298 71 0 0 0 0 0 0 0 0 0 0 0 0 0 0 0 0 0 0 0
142 118 29 0 0 0 98 298 507 500 313 198 21 0 0 0 0 0 0 0 0 0 0 0 0 0 0 0 0 0 0 0
3 0 7 8 1 0 69 333 227 229 229 65 0 0 0 0 0 0 0 0 0 0 0 0 0 0 0 0 0 0 0 0
2 0 1 0 18 29 44 38 53 125 118 2 0 0 0 0 0 0 0 0 0 0 0 0 0 0 0 0 0 0 0 0
0 6 4 0 0 0 0 48 80 114 37 0 0 0 0 0 0 0 0 0 0 0 0 0 0 0 0 0 0 0 0 0
0 0 0 7 3 12 1 32 69 35 16 0 0 0 0 0 0 0 0 0 0 0 0 0 0 0 0 0 0 0 0 0
1 1 0 0 9 0 0 8 3 4 0 0 0 0 0 0 0 0 0 0 0 0 0 0 0 0 0 0 0 0 0 0
1 0 2 0 4 0 0 0 5 0 0 0 0 0 0 0 0 0 0 0 0 0 0 0 0 0 0 0 0 0 0 0
0 1 0 0 0 0 0 16 18 26 2 0 0 0 1 1 0 0 0 0 0 0 0 0 0 0 0 0 0 0 0 0
1 0 0 0 0 0 1 2 13 32 26 14 6 4 16 17 9 0 0 0 0 0 0 0 0 0 0 0 0 0 0 0
0 0 0 0 0 0 0 3 0 1 20 59 61 42 61 58 37 44 1 0 0 0 0 0 0 0 0 0 0 0 0 0
1 1 0 0 1 1 5 1 0 0 0 1 22 34 72 61 34 41 13 0 0 0 0 0 0 0 0 0 0 0 0 0
0 0 0 0 0 0 0 0 0 0 0 0 0 3 8 21 25 14 9 0 0 0 0 0 0 0 0 0 0 0 0 0
0 0 0 0 0 0 0 0 0 0 0 0 0 0 0 8 26 27 0 0 0 0 0 0 0 0 0 0 0 0 0 0
0 0 0 0 0 0 0 0 0 0 0 0 0 0 0 5 87 62 20 0 0 0 0 0 0 0 0 0 0 0 0 0
0 0 0 0 0 0 0 0 0 0 0 0 0 0 0 0 45 95 34 2 0 0 0 0 0 0 0 0 0 0 0 0
0 0 0 0 0 0 0 0 0 0 0 0 0 0 0 0 0 0 13 1 0 0 0 0 0 0 0 0 0 0 0 0
0 0 0 0 0 0 0 0 0 0 0 0 0 0 0 0 0 0 0 2 0 0 0 0 0 0 0 0 0 0 0 0
0 0 0 0 0 0 0 0 0 0 0 0 0 0 0 0 0 0 0 7 0 0 0 0 0 0 0 0 0 0 0 0

GFSFLT2_con_mlcape_048.txt.gz
CAPE
356 411 203 88 0 0 0 66 340 323 304 279 180 81 16 0 0 0 0 0 0 0 0 0 0 0 0 0 0 0 0 0
106 352 117 2 0 0 0 19 74 241 302 302 189 79 0 0 0 0 0 0 0 0 0 0 0 0 0 0 0 0 0 0
293 207 2 0 0 0 0 15 170 269 358 288 117 5 0 0 0 0 0 0 0 0 0 0 0 0 0 0 0 0 0 0
123 45 3 3 4 0 0 0 69 270 295 204 24 0 0 0 0 0 0 0 0 0 0 0 0 0 0 0 0 0 0 0
24 1 0 1 1 0 0 43 45 148 176 124 2 0 0 0 0 0 0 0 0 0 0 0 0 0 0 0 0 0 0 0
4 1 0 0 2 37 0 0 0 91 134 47 7 0 0 0 0 0 0 0 0 0 0 0 0 0 0 0 0 0 0 0
4 2 0 0 0 14 8 8 35 61 77 38 28 2 0 0 0 0 0 0 0 0 0 0 0 0 0 0 0 0 0 0
3 4 1 4 2 1 0 4 40 27 51 38 6 0 0 0 0 0 0 0 0 0 0 0 0 0 0 0 0 0 0 0
1 0 4 4 8 7 0 3 1 5 35 35 12 2 0 0 0 0 0 0 0 0 0 0 0 0 0 0 0 0 0 0
1 3 1 6 1 0 0 0 0 10 33 44 16 2 0 0 0 0 0 0 0 0 0 0 0 0 0 0 0 0 0 0
1 2 2 1 6 0 0 1 12 32 53 39 21 9 0 0 0 0 0 0 0 0 0 0 0 0 0 0 0 0 0 0
1 1 0 0 3 0 0 1 12 27 46 39 32 25 10 2 0 0 0 0 0 0 0 0 0 0 0 0 0 0 0 0
1 1 2 0 0 0 14 12 11 0 12 60 64 41 39 27 23 0 0 0 0 0 0 0 0 0 0 0 0 0 0 0
0 0 0 1 0 0 1 11 9 18 7 3 81 90 92 78 54 20 56 5 0 0 0 0 0 0 0 0 0 0 0 0
0 0 0 0 0 0 0 0 4 5 0 0 0 17 20 24 48 45 69 14 11 0 0 0 0 0 0 0 0 0 0 0
0 0 0 0 0 0 0 0 0 1 0 0 0 0 0 0 1 18 45 4 2 0 0 0 0 0 0 0 0 0 0 0
0 0 0 0 0 0 0 0 0 0 0 0 0 0 0 0 0 0 8 16 7 0 0 0 0 0 0 0 0 0 0 0
0 0 0 0 0 0 0 0 0 0 0 0 0 0 0 0 0 0 0 0 16 22 0 0 0 0 0 0 0 0 0 0
0 0 0 0 0 0 0 0 0 0 0 0 0 0 0 0 0 0 0 0 0 0 0 0 0 0 0 0 0 0 0 0
0 0 0 0 0 0 0 0 0 0 0 0 0 0 0 0 0 0 0 0 0 0 0 0 0 0 0 0 0 0 0 0

GFSFLT2_con_mlcape_051.txt.gz
CAPE
606 493 250 119 201 476 457 577 427 380 214 116 196 180 130 5 0 0 21 138 17 0 0 0 0 0 0 0 0 0 0 0
231 94 144 1 0 29 166 113 133 103 199 108 130 134 37 0 0 157 145 58 2 0 0 0 0 0 0 0 0 0 0 0
337 365 247 2 0 0 44 82 54 54 202 113 103 58 0 0 6 72 44 10 0 0 0 0 0 0 0 0 0 0 0 1
250 210 94 2 0 0 8 69 70 61 200 107 44 0 0 0 0 10 13 5 2 0 0 0 0 0 0 0 0 0 0 1
137 60 19 1 1 0 0 16 27 51 228 83 0 0 0 0 0 5 7 11 17 1 0 0 0 0 0 0 0 0 0 3
5 2 3 3 3 0 1 25 21 52 185 3 0 0 0 0 0 0 0 3 21 2 0 0 0 0 0 0 0 0 0 2
0 0 1 1 1 9 2 0 27 57 114 5 0 0 0 0 0 0 0 0 0 0 0 0 0 0 0 0 0 0 0 2
2 2 1 0 5 3 14 6 33 90 89 14 13 0 0 0 0 0 0 0 0 0 0 0 0 0 0 0 0 0 0 0
2 3 1 0 4 3 4 4 4 36 76 36 10 0 0 0 0 0 0 0 0 0 0 0 0 0 0 0 0 0 0 0
1 1 1 0 6 6 10 0 4 15 43 67 18 0 0 0 0 0 0 0 0 0 0 0 0 0 0 0 0 0 0 0
2 2 0 0 0 5 9 2 8 5 17 63 36 2 0 0 0 0 0 0 0 0 0 0 0 0 0 0 0 0 0 0
1 2 5 6 2 0 2 11 0 5 18 45 37 14 1 0 0 0 0 0 0 0 0 0 0 0 0 0 0 0 0 0
1 1 1 2 1 1 1 8 0 1 43 53 55 41 21 4 2 0 0 0 0 0 0 0 0 0 0 0 0 0 0 0
1 1 1 2 1 1 0 0 0 2 14 44 46 41 26 23 22 3 0 0 0 0 0 0 0 0 0 0 0 0 0 0
2 1 1 1 2 0 0 0 0 0 7 21 19 33 34 59 62 54 39 17 2 0 0 0 0 0 0 0 0 0 0 0
0 5 1 1 0 0 0 0 0 0 0 2 18 25 51 91 117 90 56 77 74 48 16 0 0 0 0 0 0 0 0 0
0 3 5 2 0 0 0 0 0 0 0 0 4 1 6 22 20 33 44 44 43 40 13 0 0 0 0 0 0 0 0 0
0 1 3 2 1 0 0 0 0 0 0 0 0 0 0 0 0 4 8 5 1 12 20 1 0 0 0 0 0 0 0 0
0 2 0 1 0 0 0 0 0 0 0 0 0 0 0 0 0 0 0 0 0 0 4 9 0 0 0 0 0 0 0 0
0 2 1 0 0 0 0 0 0 0 0 0 0 0 0 0 0 0 0 0 0 0 0 1 2 0 1 0 0 0 2 0

GFSFLT2_con_mlcape_054.txt.gz
CAPE
1062 840 616 305 339 776 1045 953 664 632 786 805 581 415 223 190 111 129 105 62 0 0 0 0 0 0 0 0 0 0 0 0
565 379 396 455 330 175 533 596 462 288 491 342 351 241 116 51 37 125 131 72 0 0 0 0 0 0 0 0 0 0 0 0
289 107 49 140 93 52 244 232 240 235 302 200 212 202 101 23 3 127 148 0 0 0 0 0 0 0 0 0 0 0 0 0
301 12 29 73 33 26 62 111 126 109 67 72 253 189 49 8 199 148 77 0 0 0 0 0 0 0 0 0 0 0 1 0
365 144 116 8 0 0 0 65 16 9 22 52 190 126 15 114 197 124 51 0 0 0 0 0 0 0 0 0 0 0 2 1
137 180 76 58 9 9 7 46 11 38 3 12 247 79 35 46 50 52 23 2 3 1 0 0 0 0 0 0 0 1 9 4
21 16 24 2 2 2 6 18 7 28 42 94 126 49 35 28 31 45 43 44 25 6 0 0 0 0 0 0 0 0 7 5
3 5 4 3 2 6 7 4 15 38 41 106 52 43 27 5 8 0 8 33 26 2 0 0 0 0 0 0 0 0 0 3
4 2 2 1 2 7 4 18 14 42 77 68 34 31 22 8 0 0 0 0 1 0 0 0 0 0 0 0 0 0 0 0
4 4 3 2 5 3 2 36 28 57 96 71 35 1 1 0 0 0 0 0 0 0 0 0 0 0 0 0 0 0 0 0
1 2 4 4 8 8 2 1 7 34 61 57 16 1 0 0 0 1 6 0 0 0 0 0 0 0 0 0 0 0 0 0
3 4 6 4 8 6 9 3 2 18 34 91 62 7 3 2 0 7 19 2 0 0 0 0 0 0 0 0 0 0 0 0
1 2 2 1 4 4 3 2 0 0 0 54 129 18 14 24 5 18 12 25 25 3 0 0 0 0 0 0 0 0 0 0
4 2 2 1 4 8 9 1 0 0 0 27 93 83 29 47 17 10 6 45 62 47 32 2 1 0 0 1 0 0 0 0
2 4 2 2 1 3 2 1 3 0 0 23 70 131 74 60 59 45 29 33 54 100 99 81 82 5 0 30 18 0 15 0
9 3 2 3 3 2 1 0 0 0 0 9 49 114 107 73 83 96 108 69 49 108 129 113 135 75 0 0 8 50 63 30
4 5 5 2 3 1 0 1 0 0 0 7 50 87 100 67 81 121 151 213 183 215 181 188 168 146 34 43 0 0 0 0
1 8 8 3 2 2 0 0 0 0 0 0 7 19 62 83 115 171 153 178 223 220 241 244 220 145 126 119 72 47 14 1
0 1 5 3 2 2 1 0 0 0 0 0 0 0 7 20 51 70 70 94 138 147 133 216 233 187 172 115 108 72 58 32
0 0 0 7 4 1 8 10 7 1 0 0 0 0 0 0 7 16 15 33 47 63 68 89 96 156 160 166 125 90 51 3

GFSFLT2_con_mlcape_057.txt.gz
CAPE
1357 1163 974 416 422 411 71 772 893 909 843 705 489 261 147 248 252 179 2 0 0 0 0 0 0 0 0 0 0 0 1 0
1126 1056 760 480 341 221 142 301 435 715 720 739 671 232 197 278 205 140 4 0 0 0 0 0 0 0 0 0 0 0 2 0
403 605 656 495 391 206 270 169 209 434 663 424 390 279 250 170 190 172 1 0 0 0 0 0 0 0 0 0 0 7 10 2
272 104 154 196 184 39 88 54 108 206 358 217 149 168 194 179 195 148 3 0 0 0 0 0 0 0 0 0 4 18 11 1
196 84 46 87 6 76 123 253 178 138 62 0 0 64 173 153 228 150 0 0 0 0 0 0 0 0 0 1 2 14 11 2
166 18 3 2 0 17 50 31 48 4 15 13 14 55 157 262 213 116 0 0 0 0 0 0 0 0 0 5 10 21 10 2
53 61 69 4 1 0 0 52 7 15 0 11 23 97 137 257 200 118 3 3 0 0 3 1 0 0 3 9 17 26 9 2
1 2 7 1 0 3 3 33 8 9 0 0 10 102 111 182 175 161 47 51 13 0 8 0 0 0 1 7 14 17 29 3
1 2 2 1 2 2 6 23 9 0 0 7 64 112 164 217 240 155 99 102 53 20 1 0 0 0 0 0 3 6 8 19
4 3 2 2 2 2 5 3 7 5 0 61 104 103 118 115 70 39 28 69 38 8 0 0 0 0 0 0 0 0 1 2
2 4 3 3 3 2 4 7 12 15 44 102 106 74 52 22 0 2 9 11 3 1 0 0 0 0 0 0 0 0 0 0
2 3 2 4 3 1 4 3 12 30 47 84 51 34 29 12 0 0 3 0 0 0 0 0 0 0 0 0 0 0 0 0
8 1 1 3 3 2 5 2 5 16 64 52 53 27 29 4 1 24 55 23 7 9 0 0 0 0 0 0 0 0 0 0
4 2 2 2 3 6 0 1 2 1 19 78 48 64 40 7 16 9 76 64 69 53 13 2 0 0 0 0 0 0 0 0
3 2 2 2 6 21 6 3 5 15 0 36 84 130 45 31 32 51 63 106 152 135 111 82 44 8 0 13 28 14 24 0
7 2 1 6 3 4 1 1 2 0 0 0 14 102 79 23 57 103 116 96 167 195 177 152 141 106 67 21 119 139 140 31
7 3 2 2 6 2 4 4 1 0 0 0 15 58 44 66 90 106 135 133 128 160 177 215 192 156 154 106 64 84 113 141
7 10 3 2 3 5 2 1 2 0 0 0 7 28 56 48 92 84 137 197 205 181 165 216 241 181 132 156 101 83 63 70
0 3 12 2 2 2 1 6 0 1 0 0 0 1 9 38 64 47 123 168 189 159 176 214 237 181 95 159 120 115 126 118
0 0 2 6 2 3 6 6 3 3 1 0 0 0 0 21 75 76 99 148 189 129 117 142 71 102 107 85 198 51 131 129

GFSFLT2_con_mlcape_060.txt.gz
CAPE
1518 1173 914 377 377 408 279 15 16 469 894 818 642 432 220 114 174 110 59 41 6 0 0 0 0 0 0 0 0 5 0 0
1240 1056 999 611 278 258 14 0 0 0 641 655 435 276 195 237 170 106 39 0 0 0 0 0 0 0 0 0 0 0 0 0
622 853 865 489 131 174 12 0 0 43 415 409 213 213 258 252 139 72 23 11 0 0 0 0 0 0 0 0 0 2 0 0
360 500 499 254 144 136 8 0 0 69 268 213 261 285 222 156 123 61 0 0 0 0 0 0 0 0 0 0 0 8 0 0
379 188 266 140 104 92 52 0 94 71 92 111 211 220 194 152 84 7 0 0 0 0 0 0 0 0 0 0 8 6 0 0
194 168 134 47 98 90 17 6 32 46 11 13 27 0 86 130 82 0 0 0 0 0 0 0 0 0 0 0 7 1 0 0
63 3 0 55 17 108 51 17 0 0 0 0 0 7 21 57 65 0 0 0 0 0 0 0 0 0 10 7 21 2 0 0
2 9 30 0 26 17 69 31 2 0 0 0 0 12 8 45 117 9 0 0 0 0 1 0 0 0 0 0 17 6 0 0
1 0 6 2 4 15 43 19 1 0 0 0 0 5 1 110 135 55 23 5 0 0 3 0 1 0 0 2 0 19 0 0
0 1 7 2 2 4 3 34 7 2 0 0 1 15 69 116 131 105 53 38 21 19 0 0 0 0 0 0 0 0 13 0
1 1 0 0 1 3 3 13 2 2 0 0 0 1 78 65 61 82 99 58 31 12 0 0 0 3 0 0 0 0 0 1
1 1 2 3 3 3 9 7 2 2 0 0 0 17 15 1 11 0 4 15 13 1 0 0 0 1 0 0 0 0 0 0
0 1 3 2 1 2 2 2 7 5 1 5 37 28 5 8 3 4 3 2 0 2 3 0 0 0 3 0 0 0 0 0
8 1 2 4 1 1 2 3 3 10 25 0 0 12 6 1 12 4 10 55 18 14 0 5 0 0 0 0 0 0 0 0
2 3 3 1 4 2 2 2 1 0 8 1 7 6 0 0 16 43 43 70 5 26 17 11 0 0 0 0 0 0 0 0
2 3 1 2 3 5 0 1 2 0 0 0 19 45 14 18 51 36 4 24 81 86 64 59 26 0 0 0 0 55 51 6
0 1 2 1 3 3 2 2 1 0 0 0 2 23 73 30 31 85 25 0 30 77 113 97 102 98 22 25 1 33 85 56
0 3 4 2 0 4 2 3 0 0 0 0 0 7 72 75 25 40 85 93 26 62 117 136 120 156 132 120 84 77 43 62
0 0 5 6 1 0 0 5 1 0 0 0 0 0 19 50 32 18 61 54 73 68 75 87 168 130 131 74 75 42 31 51
0 0 3 4 3 2 2 2 2 0 0 0 0 0 0 14 19 6 20 39 52 117 81 83 86 130 76 39 73 70 44 30

GFSFLT2_con_mlcape_063.txt.gz
CAPE
1330 860 760 805 743 676 399 440 42 105 300 747 658 468 475 337 327 190 73 29 3 0 0 0 0 0 0 0 0 0 0 0
975 1009 897 435 290 272 102 56 0 4 2 56 254 280 338 315 313 202 82 28 7 0 0 0 0 0 0 0 0 0 0 0
499 663 830 428 135 44 6 0 0 0 0 0 327 311 260 213 154 147 33 3 0 0 0 0 0 0 0 0 0 0 0 0
306 515 625 203 89 57 28 0 0 0 1 0 235 244 193 162 100 76 8 0 0 0 0 0 0 0 0 0 0 0 0 0
219 380 266 90 23 21 28 0 0 0 88 69 168 230 188 50 42 25 0 0 0 0 0 0 0 0 0 0 0 0 0 0
217 218 116 39 43 10 0 0 18 1 7 104 94 141 58 29 23 15 2 0 0 0 0 0 0 0 0 0 0 0 0 0
71 106 34 41 26 2 1 12 8 18 45 22 7 41 24 0 1 1 0 0 0 0 0 0 0 0 0 0 0 0 0 0
7 10 29 8 19 1 1 26 4 3 3 0 2 57 15 0 0 0 0 0 0 0 0 0 0 0 0 0 0 0 0 0
0 1 3 17 7 5 2 3 0 0 0 0 0 1 1 9 0 0 0 0 0 0 0 0 0 0 0 0 0 0 0 0
2 6 9 16 6 0 4 0 0 0 0 0 0 0 0 17 1 0 1 0 0 0 0 0 0 0 2 0 0 0 0 0
0 0 2 3 5 14 15 3 1 0 0 0 0 0 0 13 22 0 19 0 0 0 0 0 0 0 0 0 0 0 0 0
0 2 1 0 1 1 2 30 7 0 0 0 0 0 3 26 32 0 40 29 15 10 0 0 0 0 0 0 0 0 0 0
0 1 2 0 1 1 0 0 1 2 0 0 0 0 2 0 21 24 5 37 18 0 3 0 0 0 0 0 0 0 0 0
0 0 1 1 3 5 8 2 1 1 1 0 0 0 0 0 1 8 0 24 4 2 6 5 2 0 0 0 0 0 0 0
0 0 1 1 2 2 4 2 2 2 2 1 0 0 0 0 0 0 0 1 1 5 10 3 6 0 0 0 0 0 0 0
0 0 0 1 2 0 0 1 1 1 0 0 0 0 0 0 0 0 0 10 26 17 7 0 0 4 0 0 0 0 0 0
0 1 1 0 2 2 0 0 0 1 0 0 0 0 0 0 0 0 1 16 28 16 0 0 1 1 0 0 0 0 0 0
0 0 1 2 1 2 0 0 0 0 0 0 0 0 0 0 0 0 0 0 7 63 5 3 1 18 19 0 0 0 0 0
0 0 0 4 2 1 0 0 0 0 0 0 0 0 0 0 0 5 26 7 0 7 70 54 31 15 46 65 24 8 21 28
0 0 0 4 2 2 0 0 0 0 0 0 0 0 0 2 0 0 5 36 60 47 25 87 79 48 77 72 60 55 57 50

GFSFLT2_con_mlcape_066.txt.gz
CAPE
1135 1285 1305 1069 971 862 786 543 594 484 147 454 913 724 526 465 405 429 268 108 125 12 0 0 0 0 0 0 0 0 0 0
839 794 717 579 597 603 488 357 140 75 7 0 200 290 446 358 326 266 146 47 30 6 0 0 0 0 0 0 0 0 0 0
433 616 643 294 166 192 142 164 190 40 0 0 18 79 213 312 240 143 71 40 29 1 0 0 0 0 0 0 0 0 0 0
331 435 491 264 61 6 4 24 36 42 0 0 3 48 143 274 211 103 31 35 11 0 0 0 0 0 0 0 0 0 0 0
226 361 372 273 50 1 0 0 0 0 0 0 0 55 126 212 124 47 27 18 0 0 0 0 0 0 0 0 0 0 0 0
185 228 258 167 6 1 0 0 0 0 0 0 3 47 77 68 38 5 4 0 0 0 0 0 0 0 0 0 0 0 0 0
111 129 145 119 7 1 1 0 0 0 11 0 13 50 35 17 16 3 0 0 0 0 0 0 0 0 0 0 0 0 0 0
73 108 113 59 14 1 2 2 14 4 47 21 63 8 8 7 0 0 0 0 0 0 0 0 0 0 0 0 0 0 0 0
27 57 75 36 4 0 2 1 10 23 43 19 27 21 1 0 0 0 0 0 0 0 0 0 0 0 0 0 0 0 0 0
4 32 61 10 5 2 0 2 1 4 2 10 8 19 1 0 0 0 0 0 0 0 0 0 0 0 0 0 0 0 0 0
0 1 32 5 6 1 0 0 0 0 0 0 11 8 1 0 0 0 0 0 0 0 0 0 0 0 0 0 0 0 0 0
0 0 1 5 8 5 1 1 1 0 0 0 11 1 26 1 0 0 0 0 0 0 0 0 0 0 0 0 0 0 0 0
0 0 0 0 3 3 6 3 3 1 0 0 2 0 3 24 0 0 0 0 0 0 0 0 0 0 1 0 0 0 0 0
0 0 0 1 1 2 0 1 0 1 1 0 1 0 0 9 11 0 9 0 0 0 0 0 0 2 2 3 7 0 0 0
0 0 0 0 0 0 0 0 1 1 1 2 0 0 0 1 18 5 15 21 0 0 0 0 0 0 3 0 0 0 0 0
0 0 0 0 0 0 0 0 3 4 1 1 1 0 1 0 3 0 14 25 8 0 0 0 0 7 2 2 0 0 1 0
0 0 0 0 1 0 0 1 1 0 1 2 1 0 0 0 0 6 2 33 10 2 0 1 0 2 0 0 0 0 0 0
0 0 0 0 5 2 0 0 0 1 1 1 0 0 0 0 0 13 8 0 0 0 0 4 0 1 0 0 0 0 0 0
0 0 0 0 0 3 0 0 0 0 0 0 0 0 0 0 0 0 1 0 0 25 9 10 4 0 2 0 0 0 0 0
0 0 0 0 0 0 1 0 0 0 0 0 0 0 0 0 0 0 0 0 0 5 76 36 1 0 4 9 11 7 0 1

GFSFLT2_con_mlcape_069.txt.gz
CAPE
1192 1324 1585 1431 1201 1142 759 612 552 752 509 134 550 691 859 796 735 536 447 298 204 112 33 1 0 0 0 0 0 0 0 0
911 1146 821 587 700 810 677 276 89 40 146 247 125 210 312 396 507 500 367 289 176 65 5 0 0 0 0 0 0 0 0 0
633 711 530 430 580 759 733 216 0 0 85 133 42 0 94 189 305 314 274 163 74 4 0 0 0 0 0 0 0 0 0 0
342 425 308 206 284 304 398 1 0 18 29 32 17 9 93 54 152 222 159 107 15 0 0 0 0 0 0 0 0 0 0 0
161 237 259 169 65 24 43 46 14 12 9 0 0 5 69 50 100 137 100 65 2 0 0 0 0 0 0 0 0 0 0 0
60 149 206 143 30 0 0 0 1 1 0 0 4 1 17 46 82 40 24 12 0 0 0 0 0 0 0 0 0 0 0 0
59 86 132 77 55 1 1 0 1 2 2 0 4 11 29 66 52 20 5 0 0 0 0 0 0 0 0 0 0 0 0 0
29 39 66 82 68 1 0 0 1 1 2 0 17 36 72 31 20 1 0 0 0 0 0 0 0 0 0 0 0 0 0 0
17 23 46 76 65 0 1 2 0 0 2 0 30 94 71 20 1 0 0 0 0 0 0 0 0 0 0 0 0 0 0 0
9 18 20 37 42 8 2 0 0 6 9 16 3 86 42 6 0 0 0 0 0 0 0 0 0 0 0 0 0 0 0 0
0 0 1 3 24 9 0 0 0 0 2 3 18 17 1 0 0 0 0 0 0 0 0 0 0 0 0 0 0 0 0 0
0 0 2 0 10 2 1 0 0 0 0 4 3 17 0 0 0 0 0 0 0 0 0 0 0 0 0 0 0 0 0 0
0 0 2 1 4 4 1 0 0 0 0 0 5 28 0 0 0 0 0 0 0 0 0 0 0 0 0 0 0 0 0 0
0 0 2 1 4 2 4 2 1 0 0 0 0 2 14 0 0 0 0 0 0 0 0 0 0 0 0 0 0 0 0 0
0 0 0 1 4 0 0 0 0 1 1 1 1 0 0 4 0 0 0 0 0 0 0 0 0 0 0 0 0 13 0 0
0 0 0 0 2 0 0 1 0 1 1 1 2 0 0 0 13 0 0 1 3 11 2 0 0 0 0 0 1 2 3 2
0 0 0 0 0 0 0 0 0 0 1 1 1 1 0 0 0 3 0 12 2 20 15 5 8 8 4 0 0 0 0 0
0 0 0 0 0 0 0 0 1 2 2 4 1 1 0 0 0 0 2 11 18 13 26 7 2 10 15 5 0 1 0 0
0 0 0 0 0 0 0 0 0 2 0 1 1 1 1 0 0 0 0 4 24 5 5 0 0 2 9 7 12 1 1 0
0 0 0 0 0 0 0 0 0 0 1 0 1 1 0 0 0 0 0 0 12 19 2 0 0 0 6 11 12 0 0 0

GFSFLT2_con_mlcape_072.txt.gz
CAPE
1120 1179 1312 1317 1322 847 423 396 730 1002 632 620 548 437 311 333 444 632 641 495 409 292 196 109 35 2 0 0 0 0 0 0
1031 1143 1330 1227 715 549 642 335 325 347 310 137 45 149 128 164 363 412 446 349 282 245 120 73 22 0 0 0 0 0 0 0
783 1038 1055 869 647 409 272 242 301 292 167 34 86 115 79 144 127 305 354 228 223 91 54 31 0 0 0 0 0 0 0 0
503 719 693 486 561 573 223 137 110 62 62 24 63 68 78 11 40 119 127 139 52 6 1 0 0 0 0 0 0 0 0 0
374 349 217 168 205 222 92 24 1 0 0 16 0 1 82 75 4 47 97 62 0 0 0 0 0 0 0 0 0 0 0 0
238 187 168 40 39 81 81 81 4 2 4 2 24 10 51 5 23 27 46 0 0 0 0 0 0 0 0 0 0 0 0 0
110 70 80 33 28 28 27 18 2 1 1 1 6 15 30 0 9 37 33 0 0 0 0 0 0 0 0 0 0 0 0 0
41 44 47 17 18 10 13 1 0 1 2 2 6 13 40 17 27 22 4 0 0 0 0 0 0 0 0 0 0 0 0 0
43 31 18 9 0 2 1 1 2 2 1 1 15 16 32 63 36 3 2 0 0 0 0 0 0 0 0 0 0 0 0 0
32 27 14 2 0 3 2 2 2 1 2 2 3 40 78 84 26 3 0 0 0 0 0 0 0 0 0 0 0 0 0 0
28 27 0 0 0 5 6 1 3 4 0 2 2 72 89 42 3 10 0 0 0 0 0 0 0 0 0 0 0 0 0 0
27 15 1 1 0 7 7 0 3 2 4 14 4 56 21 8 0 2 0 0 0 0 0 0 0 0 0 0 0 0 0 0
12 0 1 2 0 2 3 1 0 0 1 6 8 3 1 0 8 1 0 0 0 0 0 0 0 0 0 0 0 0 0 0
0 0 1 1 1 2 1 0 0 0 0 1 11 8 0 0 1 0 0 0 0 0 0 0 0 0 0 0 0 0 0 0
0 0 3 1 1 1 1 0 0 0 0 1 2 6 3 0 0 0 0 0 0 0 0 0 0 0 0 0 0 0 0 0
0 0 2 1 1 3 1 0 0 2 0 1 1 2 4 0 0 0 0 0 0 0 0 0 0 0 0 0 0 0 0 0
0 0 1 0 1 3 3 1 0 0 1 0 1 1 0 0 0 0 0 0 0 0 0 0 0 0 0 0 0 0 0 0
0 0 0 2 1 0 1 0 0 0 0 0 3 0 0 1 2 0 0 0 0 0 2 9 22 6 0 6 6 5 5 0
0 0 0 0 0 0 0 0 0 0 0 0 1 2 1 1 1 0 0 0 0 0 4 4 16 24 28 21 18 28 20 0
0 0 0 0 0 0 0 0 0 1 3 0 2 6 5 0 0 0 0 0 0 0 3 9 9 12 14 23 17 26 35 27

GFSFLT2_con_mlcape_075.txt.gz
CAPE
1181 1221 1380 1246 1162 1084 823 548 409 820 932 700 530 391 444 425 354 397 756 885 855 630 437 291 187 76 4 0 0 0 0 0
1343 1244 1282 1359 1433 1022 845 594 294 285 314 319 181 110 126 155 154 296 418 709 574 421 321 214 127 24 0 0 0 0 0 0
1198 1238 1350 1138 1449 888 681 515 448 265 262 137 37 33 0 9 45 133 288 309 354 317 250 148 45 1 0 0 0 0 0 0
1070 1060 979 1008 1106 818 782 601 452 368 187 43 44 11 0 0 0 94 157 180 199 224 151 37 13 2 0 0 0 0 0 0
771 760 885 918 641 636 528 563 546 322 111 27 32 44 7 27 50 64 75 109 194 187 81 27 14 0 0 0 0 0 0 0
702 605 584 454 390 364 286 164 171 156 130 29 51 45 20 18 27 73 66 82 153 145 79 3 0 0 0 0 0 0 0 0
551 452 329 196 127 96 57 82 82 43 41 5 4 24 63 23 10 76 45 14 101 50 4 0 0 0 0 0 0 0 0 2
383 329 256 113 64 40 39 47 26 7 5 4 2 18 86 39 25 70 13 6 2 0 0 2 0 0 0 0 0 0 0 5
270 151 116 51 52 2 3 8 14 9 2 3 12 48 55 10 41 37 7 0 0 0 0 0 0 0 0 0 0 0 0 3
164 99 73 46 2 3 8 7 4 2 2 3 6 20 69 27 33 23 2 0 0 0 0 0 0 0 0 0 0 0 0 0
83 93 57 30 0 3 3 10 5 4 2 2 1 9 51 53 19 3 1 0 0 0 0 0 0 0 0 0 0 0 0 0
80 67 47 10 3 3 9 10 7 7 2 1 0 11 40 34 8 1 2 0 0 0 0 0 0 0 0 0 0 0 0 0
77 51 32 2 1 2 7 7 2 6 17 7 0 2 62 2 2 0 1 0 0 0 0 0 0 0 0 2 0 2 0 0
81 56 41 1 3 0 0 0 0 1 6 3 24 25 7 2 1 1 0 4 0 0 0 0 0 0 0 1 5 3 2 0
53 36 42 2 4 5 1 2 1 1 0 2 2 1 1 1 2 0 0 0 0 0 0 0 0 0 0 3 2 10 0 1
17 4 4 2 6 2 2 1 1 1 0 0 2 1 1 0 0 0 0 0 0 0 0 0 0 0 0 0 10 5 25 0
8 1 2 1 4 2 1 3 8 0 2 0 5 2 1 2 1 0 0 0 0 0 0 0 0 2 0 0 0 0 7 8
0 0 1 0 3 5 7 7 0 0 0 1 1 0 2 1 1 0 0 0 0 0 0 0 0 0 2 16 6 5 0 0
0 0 2 0 3 4 4 2 3 1 2 3 1 0 1 2 1 2 0 0 0 0 0 0 0 0 6 16 20 37 30 18
1 2 1 2 0 1 3 1 1 2 1 0 0 1 0 0 2 1 1 0 0 0 0 0 0 0 15 31 43 40 48 51

GFSFLT2_con_mlcape_078.txt.gz
CAPE
1927 1651 1498 1266 1224 1116 1006 1218 1003 583 935 588 717 533 666 415 387 419 546 671 945 939 767 580 369 184 90 27 1 12 133 77
1650 1763 1717 1739 1601 1068 996 838 675 485 579 363 279 270 220 184 184 265 238 640 853 738 594 379 198 77 13 0 0 0 80 51
1969 1728 1755 1686 1945 1730 1122 920 671 470 375 320 281 345 208 51 108 183 124 263 489 538 370 211 105 22 0 0 0 35 31 33
1926 1673 1653 1666 1642 1843 1548 1292 741 556 614 482 596 300 185 278 143 208 112 79 229 234 201 107 86 91 17 0 54 30 24 18
1761 1949 1762 1677 1523 1552 1570 1217 1010 721 725 492 431 269 138 23 51 141 137 87 163 176 167 245 180 131 44 37 33 17 19 15
1545 1467 1330 1433 1400 1256 1356 1289 1120 837 844 559 202 169 66 40 5 81 84 106 127 197 261 189 130 82 59 40 20 13 12 8
1466 1282 1042 1123 1009 879 887 1137 863 737 877 732 267 121 138 122 138 109 35 91 73 206 154 101 123 111 31 19 11 10 5 1
1522 1199 1142 1081 879 546 596 686 691 366 418 578 582 280 133 65 77 68 44 42 65 139 111 96 103 86 51 26 11 1 1 2
1460 998 866 927 810 363 236 275 314 259 248 256 171 107 88 56 48 70 43 32 48 94 77 79 96 62 54 8 1 0 0 2
1218 761 894 867 473 172 49 53 209 163 74 91 62 83 100 77 49 29 15 4 47 63 74 66 62 77 43 15 6 4 0 2
1180 817 742 551 303 78 34 38 59 39 30 13 32 68 87 54 57 23 3 1 5 63 94 87 56 71 32 22 20 12 1 0
1097 568 554 446 249 39 3 35 13 11 4 4 8 24 77 40 65 9 5 1 8 62 72 63 95 77 23 35 35 23 17 8
1034 529 469 236 78 11 2 23 12 10 5 3 3 3 4 72 31 2 2 0 1 21 97 84 64 73 17 38 20 7 12 7
926 584 351 218 94 2 3 1 6 25 18 8 15 34 27 4 5 3 1 2 0 16 47 70 50 47 26 23 15 21 10 10
840 605 467 262 203 83 95 6 11 9 12 6 1 114 21 6 2 5 2 2 0 12 36 35 30 33 34 13 27 12 9 10
795 645 369 351 143 38 11 1 2 8 2 0 6 5 3 0 2 2 1 5 1 5 19 11 23 30 25 43 38 20 10 22
813 640 346 218 71 3 5 5 4 15 2 1 2 3 2 1 2 2 2 1 24 41 17 30 18 19 13 26 38 40 38 35
653 457 205 168 72 9 4 2 3 32 3 7 2 2 2 2 1 2 0 0 4 0 0 0 0 6 15 36 46 43 50 50
310 298 120 68 7 5 9 16 20 7 15 1 2 2 2 1 1 2 0 0 0 1 0 2 0 0 15 26 48 57 75 58
108 174 26 12 3 2 18 13 2 4 14 21 14 4 12 5 1 1 1 0 0 0 0 0 1 5 9 45 62 73 94 82

GFSFLT2_con_mlcape_081.txt.gz
CAPE
2216 1588 1318 1160 1189 1281 1322 1473 1472 1509 1495 837 955 592 468 252 375 410 482 404 665 876 914 796 677 484 430 350 167 69 224 147
2335 2014 1930 1790 1666 1263 1152 1252 1250 1000 985 664 613 526 373 325 255 133 216 287 399 653 620 590 406 255 221 103 46 32 151 60
2083 2046 2030 2009 1789 1695 1189 1109 965 850 694 568 393 622 379 221 69 36 89 210 187 324 311 322 174 154 87 0 11 31 54 58
2490 2091 2113 2027 1596 2013 1755 1692 1235 1022 663 782 630 725 403 60 0 0 55 141 190 215 184 132 124 105 21 5 77 72 50 65
2031 2144 2055 1962 1565 1894 2000 1620 1349 1216 1011 980 692 692 246 72 29 44 152 135 225 139 107 187 248 164 99 50 59 17 45 57
1853 2164 1961 1782 1520 2050 1785 1450 1365 1346 1131 945 609 599 404 211 247 208 174 157 115 122 115 244 163 111 98 32 23 26 38 40
1832 1937 1716 1605 1624 1608 1758 1587 1542 1395 1158 973 648 556 318 98 110 147 88 135 93 109 109 219 137 76 75 21 16 32 30 38
1771 1933 1562 1472 1375 1306 1424 1607 1502 1371 1173 1019 731 537 344 131 60 97 202 160 68 58 79 124 127 73 58 21 28 20 2 8
1851 1992 1655 1528 1400 1186 1250 1128 1079 836 928 956 674 569 325 213 197 161 72 81 46 36 77 92 134 96 48 31 32 4 0 7
1868 1848 1542 1458 1210 1088 754 846 922 637 664 579 545 416 424 105 65 83 65 41 52 52 66 88 58 75 23 47 20 2 2 4
1870 1723 1377 1387 1217 675 423 442 397 476 409 197 340 284 242 94 81 30 23 39 56 32 54 80 45 41 20 40 22 10 2 3
1849 1649 1505 1320 986 546 574 196 93 54 78 156 211 129 62 102 42 11 18 22 47 18 40 57 64 29 21 29 25 19 9 8
1857 1629 1418 1127 768 501 304 226 253 67 34 14 21 30 124 130 40 5 3 10 6 17 34 50 47 29 19 17 23 21 26 17
1812 1531 1289 1027 724 413 225 224 277 173 109 36 8 8 29 19 37 5 3 9 10 8 30 44 69 30 15 23 26 30 25 9
1735 1459 1150 875 661 397 175 47 128 92 94 84 29 109 85 54 12 13 15 1 0 0 24 48 51 20 16 2 20 15 17 21
1632 1447 1147 884 667 328 227 166 24 82 34 75 61 49 109 77 7 6 8 1 1 0 29 41 31 34 38 42 24 9 9 28
1555 1381 1177 891 729 533 236 61 97 81 29 18 4 5 0 2 5 2 2 2 1 0 24 24 45 39 55 82 49 40 42 33
1440 1373 1188 936 863 497 199 95 86 134 68 27 2 1 1 1 1 2 3 3 1 0 24 37 34 31 62 61 54 33 59 35
1387 1348 947 964 736 438 161 95 137 23 85 20 1 1 2 0 0 1 0 2 10 7 30 25 41 38 41 27 43 58 51 35
1303 1245 757 862 716 419 137 72 70 131 92 32 4 2 2 1 1 1 0 1 2 29 43 43 53 46 35 52 65 53 36 45

GFSFLT2_con_mlcape_084.txt.gz
CAPE
2047 1229 1089 1091 1169 1159 1231 1418 1381 1515 1602 1643 1563 1145 806 648 471 275 115 254 398 413 821 783 736 640 593 458 338 277 254 387
2541 1758 1344 1217 1114 1107 1188 1338 1424 1524 1533 1430 1197 795 727 458 314 0 82 186 220 313 584 701 586 503 467 309 142 134 149 188
2692 2269 2128 2005 1878 1378 1091 1153 1333 1182 1095 959 820 784 581 469 109 67 117 57 126 224 237 266 316 317 239 128 64 30 145 75
2514 2021 2307 2244 1837 1714 1515 1432 1244 1124 999 851 986 923 631 384 51 46 3 68 96 134 150 129 132 164 160 48 95 122 49 40
2737 2084 2408 2287 1770 2097 1816 1781 1601 1362 1129 1019 1035 999 557 26 0 1 14 63 114 100 51 109 177 160 128 91 146 91 34 26
2708 2275 2131 2170 1677 1794 1774 2065 1827 1461 1304 1053 906 849 331 40 0 0 19 110 144 133 126 145 167 215 184 166 117 69 28 24
2075 2416 2206 2268 1999 1787 2035 1862 1552 1431 1363 1197 993 895 534 406 145 20 42 151 136 134 105 71 96 128 182 154 17 63 37 20
2050 2301 2271 2094 1854 1774 1747 1770 1755 1471 1282 1176 975 745 583 493 412 227 141 153 146 76 42 57 63 57 69 37 11 40 15 2
2022 2189 1997 1792 1534 1613 1456 1472 1753 1561 1377 1104 1019 711 484 221 166 196 84 135 103 31 39 32 68 63 41 44 34 19 3 0
2120 2193 1851 1674 1477 1368 1223 1200 1436 1213 1082 890 898 641 491 247 93 79 170 108 43 18 23 36 58 60 47 26 9 0 0 1
2077 2154 1889 1852 1581 1261 938 845 1170 958 833 907 682 577 342 247 165 133 58 42 38 35 27 36 54 41 29 23 2 0 0 9
2246 2090 1764 1678 1502 949 594 559 700 780 622 530 446 376 310 264 115 46 29 31 22 23 30 23 36 8 16 25 19 0 0 3
2308 2002 1602 1579 1113 706 567 352 325 281 227 147 260 211 216 133 71 25 20 17 25 35 24 27 34 13 17 25 27 14 3 4
2313 1987 1700 1629 1122 717 778 499 397 124 72 44 62 130 143 60 54 11 8 15 15 14 9 31 13 35 12 8 18 18 18 15
2180 1930 1828 1546 1131 897 646 516 370 160 63 87 45 30 25 78 80 9 2 5 4 13 4 15 30 32 16 0 2 5 4 14
2079 1935 1684 1526 1148 836 553 298 247 166 72 76 92 110 80 88 5 2 2 17 4 10 4 11 32 23 30 12 12 2 0 0
2034 1890 1573 1388 1140 832 544 327 240 115 148 96 68 25 69 103 7 4 5 8 3 7 8 7 19 17 21 27 18 45 12 2
1972 1820 1500 1284 1184 797 656 371 197 100 93 51 12 0 0 5 4 2 4 5 1 4 3 5 20 30 33 37 54 39 35 34
1958 1807 1529 1348 1154 1133 652 517 219 139 78 43 3 2 1 1 2 2 2 1 1 2 7 21 17 19 16 54 55 66 49 54
1855 1735 1474 1355 1223 989 612 371 115 140 133 38 2 0 0 2 1 0 0 1 1 3 4 12 6 7 27 59 61 62 67 47

GFSFLT2_con_mlcape_087.txt.gz
CAPE
1254 1034 957 1108 1178 1119 1180 1424 1662 1775 1718 1613 1637 1575 1330 890 721 460 294 249 212 234 557 738 662 577 463 456 382 350 321 323
1361 885 795 981 1130 1133 1174 1330 1263 1388 1472 1611 1753 1524 1094 787 591 400 154 0 8 91 327 534 592 435 388 355 291 316 255 212
1860 1103 873 836 843 1055 1178 1276 1274 1397 1612 1566 1223 1079 798 786 426 163 7 0 1 17 170 222 157 273 268 240 129 124 140 128
2127 1950 1583 1402 1485 1156 977 1096 1164 1091 1064 906 941 859 676 544 238 52 0 0 51 15 130 106 89 160 175 113 18 12 67 106
2214 2102 2263 2056 1850 1413 1160 1031 901 894 801 737 976 762 469 378 249 103 52 10 25 5 92 88 91 127 119 80 18 14 13 91
2180 2041 1979 1991 1961 1656 1473 1478 1260 991 826 917 972 679 399 233 185 75 19 55 50 46 6 106 104 129 109 84 36 7 5 29
2225 2211 1991 1786 1910 1898 1515 1873 1633 1330 1099 1062 982 710 520 198 47 21 3 0 33 74 27 66 145 112 76 55 11 3 11 13
2322 2328 2030 1717 1560 1704 1251 1748 1743 1491 1236 1028 956 798 550 320 43 0 4 83 120 73 38 70 131 126 77 79 0 0 1 7
2262 2187 2088 1739 1462 1714 1430 1568 1509 1412 1251 1133 1020 931 729 480 237 47 1 113 134 88 41 43 33 45 47 32 1 0 0 0
2111 2197 2128 1927 1768 1554 1259 1334 1475 1283 1126 1088 953 876 787 536 427 217 95 85 77 78 44 33 19 36 30 24 8 0 0 0
2089 2064 1987 1785 1588 1311 945 1148 1241 1194 1108 998 943 858 672 393 293 236 146 59 31 27 11 19 19 35 28 20 0 0 2 1
1824 1930 1769 1462 1271 1069 861 713 934 981 902 771 864 721 581 369 170 124 40 12 10 8 0 14 31 19 23 6 0 0 0 1
1696 1866 1723 1348 1114 993 773 479 556 874 674 661 617 530 463 218 108 67 11 14 22 19 28 20 20 9 0 1 0 0 0 0
1782 1919 1727 1231 986 822 584 319 383 447 530 429 453 374 269 141 96 35 11 8 21 22 4 16 20 18 1 3 0 1 9 0
1844 1830 1604 1188 911 848 591 334 348 345 306 118 67 137 168 119 59 5 5 4 2 11 13 9 22 22 6 0 0 2 6 16
1820 1692 1556 1136 1063 854 633 506 457 308 153 122 63 61 135 141 86 22 16 10 13 6 9 1 15 9 7 0 0 1 0 4
1767 1713 1489 1155 957 739 580 546 493 298 136 121 117 65 52 43 30 26 24 28 23 24 1 7 11 0 0 0 7 20 12 0
1777 1706 1562 1236 920 722 626 535 405 301 119 115 70 49 59 31 21 20 16 28 20 28 13 0 0 8 11 3 15 17 11 13
1716 1603 1431 1246 1009 759 639 469 289 130 203 137 83 4 0 3 0 1 13 18 11 19 6 2 0 1 1 15 12 42 65 31
1667 1438 1275 1165 974 820 683 428 284 146 161 113 20 0 0 0 0 0 1 3 1 1 7 4 8 9 7 25 11 40 44 19

GFSFLT2_con_mlcape_090.txt.gz
CAPE
608 915 1084 1146 1231 1235 1268 1430 1542 1610 1620 1639 1575 1558 1440 1278 1065 993 741 633 460 420 249 376 280 373 303 320 384 426 362 366
880 730 876 1172 1242 1188 1249 1422 1542 1652 1698 1676 1596 1714 1636 1250 1019 808 568 455 390 304 138 273 206 213 291 291 367 375 321 308
1280 980 722 941 1065 1159 1307 1434 1548 1564 1595 1594 1611 1711 1373 1098 808 682 447 403 333 112 27 29 117 136 176 230 283 209 228 225
1386 846 559 826 1077 1108 1204 1314 1291 1350 1469 1580 1493 1294 978 840 685 565 79 19 22 21 23 7 126 73 106 127 100 106 137 155
1804 1378 725 680 939 885 954 1086 1079 1113 1327 1196 1030 927 769 714 467 417 106 17 23 69 69 100 92 58 62 35 21 45 69 109
2041 1929 1506 1089 1259 1176 881 819 884 864 804 880 729 619 541 511 379 180 69 61 20 0 9 1 63 67 49 29 0 6 71 100
2162 2293 2053 1663 1511 1537 1230 1056 873 758 713 848 681 443 323 250 205 173 162 129 91 0 0 35 47 54 40 33 0 5 63 85
2300 2267 2329 1977 1635 1719 1523 1302 1258 984 765 821 741 547 338 236 195 251 200 158 118 7 0 8 54 82 42 17 3 0 2 24
1874 2295 2293 2031 1665 1744 1532 1476 1636 1331 974 894 867 637 499 294 242 243 172 146 83 79 10 12 27 65 51 3 0 2 0 0
1160 2118 2304 1991 1703 1705 1345 1493 1537 1502 1147 913 857 700 602 441 300 148 102 105 59 50 17 18 9 43 35 9 2 4 0 4
563 1657 2193 2142 1556 1526 1416 1471 1359 1332 1118 968 850 800 685 589 438 290 62 56 122 72 30 25 33 45 36 12 0 0 0 0
433 1196 1896 2020 1454 1325 1157 1291 1262 1088 986 958 875 769 690 592 451 348 238 92 31 30 8 14 27 32 54 35 0 0 0 0
351 1197 1750 1824 1436 1268 967 859 1066 1077 864 802 766 714 652 532 327 320 314 121 13 1 1 15 13 38 63 6 0 0 0 0
600 1131 1376 1767 1381 1162 744 420 495 418 714 599 630 638 444 469 373 237 136 31 3 2 3 0 9 39 16 0 2 0 0 0
587 1102 1178 1462 1215 588 376 247 279 367 509 492 460 460 460 387 326 191 38 4 2 6 5 1 18 1 2 0 1 0 0 0
796 1118 1353 1174 917 764 720 544 311 245 325 372 382 397 330 252 157 57 17 3 1 2 11 19 21 2 1 0 0 0 0 0
1112 1415 1272 967 1034 775 611 380 250 198 244 355 210 80 156 154 96 61 27 0 4 4 11 2 14 1 0 0 0 0 0 0
1569 1539 1174 949 907 690 643 433 286 295 271 221 109 101 109 99 121 91 17 1 11 34 33 6 13 0 0 0 0 0 0 0
1573 1379 1114 1042 813 662 515 438 370 386 292 213 137 141 97 82 57 43 25 15 18 48 44 30 11 0 0 0 0 0 1 1
1354 1117 894 768 670 476 389 391 412 366 294 167 89 78 63 39 28 30 20 7 15 33 59 39 3 4 0 0 0 2 9 10

GFSFLT2_con_mlcape_093.txt.gz
CAPE
918 1133 1286 1402 1496 1577 1536 1540 1555 1530 1550 1547 1488 1408 1383 1339 1283 1257 1239 903 815 791 537 381 507 462 517 333 510 408 375 363
837 906 987 1018 1262 1390 1465 1567 1588 1611 1636 1627 1617 1518 1408 1349 1323 1296 1148 775 765 660 383 353 289 252 284 142 276 383 351 357
613 756 889 918 1027 1303 1405 1539 1640 1637 1676 1713 1645 1631 1512 1370 1175 1136 973 728 605 533 376 213 109 91 127 70 204 288 270 289
375 566 728 777 888 1051 1233 1515 1678 1657 1672 1708 1656 1566 1473 1234 1040 989 832 559 531 404 151 109 37 37 89 96 109 172 174 236
1096 940 725 694 846 958 1066 1362 1392 1444 1405 1477 1471 1429 1279 890 776 612 403 307 309 183 65 20 4 36 69 44 51 108 116 129
1413 1124 771 645 690 658 822 1038 1131 1123 1240 1319 1319 1250 919 618 563 443 98 63 28 4 36 80 17 29 72 57 33 87 82 104
1646 1315 959 748 740 618 607 743 864 929 969 1179 1111 858 658 517 491 279 119 41 0 40 106 129 42 42 82 57 28 57 67 101
2087 1805 1512 1131 918 627 605 685 665 765 799 928 833 519 407 341 199 129 55 15 7 4 0 53 14 35 70 63 13 40 77 85
1999 2193 2072 1802 1446 1185 993 925 842 750 774 781 687 484 260 178 70 116 61 32 52 0 0 11 14 21 53 55 5 17 50 52
751 2173 2327 2231 1855 1645 1458 1318 1115 1000 794 784 690 496 277 160 123 106 51 58 81 12 1 0 22 36 24 41 4 1 7 19
69 1486 2217 2465 2170 1861 1598 1461 1331 1252 1038 911 812 668 465 321 150 105 70 70 41 61 4 0 0 8 13 12 6 10 16 10
0 726 1519 2349 2031 1639 1467 1367 1331 1380 1374 1189 915 810 629 450 245 123 106 87 29 7 22 2 0 0 4 1 1 0 2 3
0 558 1282 2020 1876 1662 1517 1515 1301 1278 1290 1261 1034 846 636 550 374 187 98 41 17 15 5 0 0 14 39 0 0 2 1 1
0 329 899 1553 1695 1716 1446 1491 1191 1061 1007 1081 948 791 645 561 419 262 201 148 48 5 0 2 4 7 33 0 1 0 0 1
2 353 884 1255 1685 1358 966 856 695 549 783 908 648 686 536 490 360 273 249 60 47 8 0 2 4 8 0 0 2 1 0 0
21 426 867 1564 1567 1231 1069 1022 839 821 957 818 560 538 504 451 313 328 264 138 10 0 1 2 0 6 2 0 0 0 0 0
71 737 1209 1564 1227 1126 1014 934 610 323 364 330 506 406 402 399 372 329 202 36 7 1 2 2 0 1 3 2 0 0 0 0
591 1126 1362 1323 1034 874 989 749 385 318 235 215 346 331 347 345 279 190 113 42 17 0 2 1 3 6 1 0 0 0 0 0
481 1607 1382 1066 906 664 669 500 411 352 173 169 261 216 174 176 174 123 33 51 24 10 2 5 7 8 0 0 0 0 0 0
62 1569 1292 941 771 643 428 385 298 257 130 139 172 121 105 72 67 74 78 63 35 27 24 22 19 33 2 1 0 0 0 0

GFSFLT2_con_mlcape_096.txt.gz
CAPE
1474 1598 1698 1620 1555 1517 1537 1456 1427 1426 1355 1341 1437 1522 1479 1474 1572 1707 1727 1251 1136 1111 919 734 651 731 537 524 544 551 487 544
1463 1616 1703 1599 1523 1480 1468 1475 1507 1543 1556 1498 1427 1465 1505 1492 1488 1623 1398 1073 1024 1010 768 633 661 637 435 400 415 379 344 361
1259 1440 1543 1563 1600 1568 1572 1583 1549 1632 1649 1618 1613 1483 1495 1465 1460 1474 1359 973 933 885 635 487 341 354 253 191 123 135 150 200
992 1050 1157 1277 1295 1481 1564 1634 1665 1645 1681 1667 1608 1559 1439 1358 1342 1390 1240 844 815 695 542 319 203 171 184 32 14 51 84 146
727 701 772 799 1003 1336 1358 1418 1457 1516 1506 1616 1609 1523 1475 1329 1148 1075 909 757 585 492 347 147 56 130 75 21 14 23 74 103
880 683 781 728 950 1069 1282 1228 1248 1248 1375 1549 1508 1449 1373 1180 1010 723 586 421 299 268 153 50 31 44 65 27 14 4 53 61
1572 1250 956 881 859 922 974 1120 1118 1245 1262 1307 1405 1368 1270 1041 763 577 349 169 144 91 37 24 11 29 66 16 14 12 27 38
1170 1605 1457 1129 935 901 841 988 1018 1012 1080 1242 1331 1217 1105 920 593 406 248 21 1 0 0 8 25 13 19 18 12 26 24 43
0 995 1610 1427 1082 864 828 783 829 790 894 1174 1101 1017 806 573 379 221 157 3 1 0 0 28 57 37 11 43 9 57 27 51
0 90 998 1556 1438 1149 980 822 709 690 732 934 928 761 485 341 220 163 25 0 2 0 0 6 43 11 7 36 45 49 22 20
0 1 373 1102 1782 1608 1261 978 909 763 710 797 738 556 361 239 163 117 17 1 2 2 2 0 7 3 2 31 9 31 23 20
0 0 322 1216 1925 1777 1613 1321 1170 1061 794 809 731 563 371 327 211 118 31 2 4 7 1 3 11 8 9 19 8 12 33 33
0 0 132 1247 1952 1916 1700 1630 1478 1302 1091 914 817 727 496 533 330 134 39 49 12 6 3 7 5 12 12 0 0 2 4 10
0 0 10 932 1622 1913 1779 1665 1526 1432 1197 999 986 860 649 645 470 247 101 43 21 13 4 22 6 14 6 0 0 1 0 1
0 0 8 641 1657 1889 1474 1430 1180 1062 1004 910 624 773 740 657 467 268 209 77 44 62 42 8 30 21 0 0 1 0 2 0
0 0 0 1195 1768 1709 1422 1321 1101 1025 998 669 366 412 642 674 432 339 257 144 119 91 30 1 1 2 1 0 0 0 0 0
0 0 7 1308 1629 1591 1323 1254 1246 1035 899 0 3 284 479 498 412 309 273 145 102 116 34 9 2 2 2 0 0 0 0 0
2 1 323 1441 1596 1453 1136 1128 972 1001 878 259 137 343 397 443 428 315 197 151 123 106 39 5 4 4 1 1 0 0 0 0
5 3 279 1474 1448 1282 1064 1022 746 827 812 666 440 467 363 379 297 218 180 154 147 55 34 6 7 4 2 1 0 0 0 0
5 4 10 1302 1133 1014 821 558 480 486 346 277 268 307 277 251 209 167 161 128 69 46 15 4 3 9 1 0 0 0 0 0

GFSFLT2_con_mlcape_099.txt.gz
CAPE
1679 1838 1781 1609 1553 1443 1334 1200 1123 1121 1185 1268 1417 1513 1628 1735 1748 1668 1745 1680 1571 1636 1473 1143 1023 1010 878 703 708 785 974 1190
1564 1668 1843 1954 1904 1644 1542 1378 1274 1238 1293 1369 1391 1370 1429 1572 1728 1749 1729 1689 1438 1269 1217 1045 982 958 788 628 627 614 842 972
1291 1490 1673 1823 1865 1937 1725 1589 1480 1444 1468 1465 1511 1725 1687 1674 1758 1780 1582 1410 1198 1058 1085 932 883 776 671 633 567 668 517 534
1214 1199 1254 1477 1601 1736 2013 1998 1924 1870 1896 1965 1926 1880 1854 1832 1716 1528 1495 1168 1034 855 887 813 639 938 800 480 838 485 266 318
901 1003 1085 1084 1228 1436 1825 1833 1866 1795 1727 1861 2044 1972 1827 1743 1793 1731 1755 1236 1208 907 936 875 844 862 724 694 282 158 86 99
640 691 837 900 950 1035 1514 1560 1594 1623 1588 1817 1719 1717 1705 1613 1466 1525 1662 1317 1094 1215 953 927 660 661 683 502 179 86 14 16
1103 939 681 626 839 955 1166 1381 1453 1446 1523 1763 1784 1613 1607 1368 1368 1207 1324 1094 918 835 744 633 541 510 632 402 130 76 8 12
13 882 1016 860 705 754 962 1209 1302 1370 1445 1556 1749 1649 1548 1269 1044 1093 980 834 599 490 303 408 377 362 249 151 149 64 4 3
0 12 774 1450 1217 1080 1020 968 1077 1097 1246 1460 1535 1543 1353 1159 915 903 743 595 300 92 48 35 101 239 241 52 89 24 2 4
0 0 190 1156 1510 1486 1347 1052 917 932 1022 1213 1370 1324 1128 941 824 683 510 361 116 46 23 2 8 14 12 36 122 8 0 24
0 0 0 93 772 1587 1588 1268 991 891 971 1095 1252 1173 985 813 682 462 405 278 128 29 2 1 2 27 34 90 19 1 0 29
0 0 0 0 749 1308 1603 1397 1248 1218 1062 1014 1145 1059 804 671 481 345 290 211 105 24 0 3 7 45 42 38 26 5 7 42
0 0 0 0 758 895 1017 1326 1390 1325 1178 1026 1072 902 684 541 374 257 236 190 128 50 2 4 16 20 28 11 7 7 3 0
0 0 0 0 131 1189 1252 1243 1456 1553 1349 1127 1048 851 630 488 434 304 261 198 131 83 32 3 15 20 17 7 5 0 1 11
0 0 0 0 1 1167 1616 1530 1609 1469 1437 1261 1117 931 677 577 528 370 293 246 148 101 61 12 4 20 7 8 2 3 1 1
0 0 0 0 0 868 1528 1322 1336 1546 1502 1373 1274 847 605 439 436 412 304 224 156 124 80 32 38 22 27 14 1 0 0 0
0 0 1 1 3 470 1633 1425 1572 1568 1541 1243 1085 860 687 134 0 154 314 280 181 130 70 66 64 46 13 4 1 0 0 0
1 2 3 1 28 504 1554 1473 1464 1489 1313 1117 1272 808 126 1 2 223 257 227 226 176 109 73 73 35 10 2 1 0 0 0
4 4 4 4 13 1018 1575 1443 1444 1434 1263 1058 876 328 30 2 73 393 330 278 194 199 115 113 68 36 5 5 0 0 1 0
5 6 5 5 5 1266 1328 1214 1139 1265 1271 516 393 230 164 170 305 432 414 277 184 99 91 85 103 24 7 2 1 0 0 0

GFSFLT2_con_mlcape_102.txt.gz
CAPE
2203 2231 1906 1573 1357 1245 1142 1048 1113 1217 1468 1689 1904 2018 1895 1846 1839 1821 1836 1903 1791 1928 1692 1244 1125 1090 1024 998 1030 974 1092 913
2253 2366 2276 2276 2008 1458 1366 1230 1142 1149 1314 1514 1698 1931 2012 1966 1880 1917 1840 1748 1668 1656 1533 1386 1110 1124 1006 893 960 988 1118 1171
2092 2037 1907 2029 2419 2194 1613 1451 1313 1265 1351 1422 1571 1846 2073 2123 2049 2012 1874 1641 1732 1510 1431 1288 1119 1104 983 835 828 1162 1321 1216
1904 1928 1827 1802 1754 2069 2259 2326 1990 1896 1841 1938 1878 1907 2098 1860 1930 2106 1832 1689 1642 1403 1148 1067 966 1270 1095 658 1018 862 1017 811
1715 1929 2023 2004 1808 1899 1930 2271 2310 2356 2291 2263 2119 2158 2202 2084 2160 2060 2002 1759 1623 1248 1288 1146 1041 1084 1023 878 773 831 798 599
1365 1736 1931 1933 1851 1668 1735 1920 1918 1929 2054 2203 2371 2421 2098 2057 1909 1985 1881 1907 1608 1581 1362 1327 1311 1149 1064 961 817 885 599 338
0 1199 1716 1766 1789 1532 1598 1698 1829 1891 2069 2045 2003 2251 2181 1964 1786 2001 1962 1848 1865 1685 1621 1507 1414 1193 1053 992 792 759 499 291
0 4 923 1602 1628 1554 1448 1417 1540 1623 1695 1703 1916 2016 2070 1964 1888 1841 1716 1768 1780 1764 1631 1481 1367 1046 849 799 804 567 504 258
0 0 2 866 1434 1542 1482 1311 1391 1416 1447 1599 1836 1946 2077 1749 1702 1660 1823 1744 1803 1651 1517 1363 1142 929 891 744 655 526 341 293
0 0 0 0 519 1083 1575 1646 1566 1446 1441 1473 1668 1847 1946 1763 1634 1566 1370 1426 1136 947 826 711 661 824 728 755 518 375 251 209
0 0 0 0 0 490 1037 1600 1972 1823 1568 1455 1601 1746 1804 1686 1440 1461 1278 1209 995 744 663 559 513 700 650 431 302 155 132 33
0 0 0 0 0 7 656 1001 1887 1890 1815 1586 1584 1754 1773 1590 1429 1160 1094 982 1063 797 554 356 277 302 110 63 93 249 98 10
0 0 0 0 0 0 184 778 1395 1364 1749 1832 1686 1728 1690 1512 1298 1021 915 822 817 620 373 186 143 184 120 62 45 66 13 4
0 0 0 0 0 0 0 565 842 1085 1462 2011 1831 1721 1713 1489 1224 995 875 816 705 611 422 130 139 133 80 43 26 1 21 10
0 0 0 0 0 0 0 353 982 1243 1484 1759 1870 1807 1651 1329 1086 895 797 708 725 782 403 215 179 157 97 88 7 12 1 4
0 0 0 0 0 0 0 10 1040 1189 1329 1699 1731 1676 1422 1183 930 795 720 659 689 665 466 346 241 168 146 158 160 19 30 0
0 0 0 0 0 1 6 0 1148 1357 1468 1587 1582 1526 1362 1162 810 680 128 611 674 660 577 581 332 202 153 121 122 58 134 32
0 1 0 0 0 1 2 177 664 1535 1483 1574 1535 1454 1286 1156 983 931 640 499 466 457 526 530 390 238 166 124 144 85 88 33
0 3 4 2 3 3 3 263 533 1762 1577 1748 1442 1234 1279 1185 959 510 379 148 235 411 459 492 368 233 171 105 51 29 26 11
1 4 4 4 3 5 6 710 866 1775 1567 1677 1410 1250 1268 1416 667 223 31 9 143 420 464 620 442 259 154 122 63 33 131 13

GFSFLT2_con_mlcape_105.txt.gz
CAPE
2494 2624 1753 1467 1269 1054 1044 1189 1346 1548 1851 2108 2194 2161 1998 1715 1581 1637 1891 1920 1858 1900 1911 1681 1221 1148 1182 1149 1128 1063 1110 972
2742 2622 2243 2096 1896 1269 1100 1037 1096 1245 1485 1801 2058 2188 2082 1869 1771 1809 1859 1900 1859 1923 1852 1532 1172 1111 1076 1010 1007 908 1117 1283
2421 2632 2619 2499 2371 1990 1381 1230 1128 1151 1331 1555 1808 2277 2432 2345 2159 2107 1886 1873 1764 1675 1573 1562 1255 1105 1035 950 896 1079 945 1058
2417 2185 2216 2281 2558 2609 2099 1894 1642 1594 1517 1738 1861 1864 2163 2158 2242 2111 2051 1877 1688 1570 1572 1492 1359 1408 1301 937 1061 994 1099 1041
2123 2368 2423 2305 2273 2431 2529 2313 2219 2186 2090 2087 1996 2007 2101 2030 2106 2169 2304 1994 1955 1833 1823 1717 1456 1227 1411 1349 1130 1161 882 1055
1541 2043 2357 2490 2558 2328 2374 2422 2532 2288 2252 2404 2329 2193 1987 1975 1584 2058 2136 2108 1891 1886 1823 1638 1476 1417 1390 1389 1234 1032 1111 979
0 423 1513 2191 2364 2343 2301 2261 2232 2246 2325 2492 2180 2003 1975 1767 1642 1708 2042 1753 2020 1853 1783 1676 1448 1347 1244 1278 1289 1023 1120 579
0 0 6 923 1650 2183 2111 2084 1967 2079 2012 2160 2280 2409 2339 1932 1796 1715 1504 1837 2164 1856 1887 1692 1680 1480 1292 1203 1227 1102 1015 779
0 0 0 0 658 1355 1696 1892 1745 1582 1721 1893 1914 2071 2334 2137 2017 2027 1658 1709 1959 1960 2043 1798 1763 1520 1323 1213 1218 1182 900 721
0 0 0 0 0 50 953 1159 1759 1711 1507 1743 1948 2043 2214 2305 1987 1923 1934 1620 2054 1948 1933 1814 1681 1467 1228 1133 1053 1005 810 694
0 0 0 0 0 0 6 786 1371 1678 1761 1797 1940 1850 1931 2241 2045 1847 1870 1666 1936 1746 1806 1747 1678 1415 1238 1053 922 786 699 644
0 0 0 0 0 0 0 3 927 1394 1562 1964 2105 2131 2065 2288 2083 1847 1776 1481 1693 1412 1206 1275 1168 1247 1028 713 741 650 636 331
0 0 0 0 0 0 0 0 24 768 1234 1526 2124 2212 2255 2236 2066 1902 1724 1352 1689 1366 1100 1033 971 925 767 379 340 380 404 271
0 0 0 0 0 0 0 0 0 149 915 1329 1800 2220 2279 1984 1969 1911 1704 1505 1627 1377 1039 856 806 696 483 66 18 0 44 192
0 0 0 0 0 0 0 0 0 2 992 1216 1534 2065 2163 1908 1883 1995 1670 1484 1370 1251 1069 765 635 558 320 198 19 2 1 10
0 0 0 0 0 0 1 0 0 0 283 1125 1468 1682 1890 2056 2003 1732 1537 1425 1280 1201 1099 865 783 472 416 372 369 225 70 0
0 0 0 0 0 0 0 2 1 0 66 1082 1454 1814 1989 2023 2017 1727 1453 1203 1191 1207 1006 862 854 601 413 268 533 326 137 130
1 0 0 0 0 0 2 3 2 0 186 939 1550 1893 1749 1932 1753 1581 1351 1272 1124 1146 533 1053 942 729 555 435 373 224 123 181
1 1 0 0 0 2 3 3 2 5 38 643 1591 1799 1675 1505 1594 1310 1339 1287 437 64 1 648 978 859 597 487 260 338 162 147
1 1 0 0 2 3 3 4 5 3 4 619 1283 1791 1662 1406 1421 1254 1256 1121 558 577 946 1127 1074 792 624 531 307 234 169 160

GFSFLT2_con_mlcape_108.txt.gz
CAPE
2666 2108 1754 1454 1206 1170 1298 1541 1792 1919 1923 1960 1989 1924 1812 1670 1440 1359 1499 1605 2127 1864 1759 1756 1303 1149 1230 1216 1114 1004 804 1018
2903 2914 2146 1645 1338 1136 1168 1309 1454 1667 1932 2074 2071 2035 1972 1888 1552 1420 1473 1822 1947 1776 1745 1701 1455 1160 1150 1139 1073 977 781 677
2197 2598 2489 2159 1969 1464 1106 1146 1194 1354 1571 1845 1991 2199 2113 2068 1786 1632 1618 1897 1798 1727 1684 1611 1459 1190 1105 1065 1015 1009 950 733
2223 2150 2460 2416 2487 2162 1332 1277 1182 1218 1415 1604 1970 2191 2537 2354 2150 1826 1861 1787 1801 1725 1623 1555 1442 1367 1120 1018 997 1091 907 968
2635 2153 1915 1988 2172 2583 2073 1797 1545 1556 1563 1794 1727 1977 2242 2208 2262 1995 2056 1872 1891 1704 1489 1518 1608 1576 1588 1359 1180 1192 964 952
2343 2509 2275 1927 1911 2200 2654 2563 2162 2084 1922 2020 2220 1889 2029 2356 1955 2270 2138 2193 1962 1819 1654 1783 1685 1632 1429 1369 1413 1253 1203 898
0 45 1427 2209 1834 2069 2215 2220 2389 2382 2549 2390 2251 2363 2245 2210 2192 2031 2190 2107 2070 1804 1864 1849 1728 1469 1464 1321 1309 1165 1176 911
0 0 0 0 1644 1564 1725 1939 2107 2426 2396 2445 2616 2621 2161 2080 2117 1668 2166 1757 1834 1809 1738 1803 1710 1535 1314 1289 1211 1190 1178 769
0 0 0 0 0 52 1463 1605 1671 1863 2233 2364 2159 2371 2492 2337 2169 1999 1546 1989 1415 1708 1768 1809 1661 1612 1470 1405 1229 1174 1135 932
0 0 0 0 0 0 0 6 1725 1890 1860 2136 2347 2047 1904 2223 2153 1863 1998 1648 1849 1966 1703 1859 1619 1593 1419 1495 1317 1211 1169 817
0 0 0 0 0 0 0 0 0 1443 1898 1824 2028 2064 1810 2052 2175 2103 1777 1730 1663 2010 1776 1759 1665 1509 1364 1167 1117 1148 970 823
0 0 0 0 0 0 0 0 0 1 1102 2010 1882 2010 1967 1880 2184 2126 2010 1750 1620 2068 1771 1778 1631 1422 1336 1090 1058 987 802 605
0 0 0 0 0 0 0 0 0 0 26 1010 1834 1975 1972 1920 2049 2010 1866 1806 1719 1937 1621 1449 1319 1267 1010 1050 781 668 681 571
0 0 0 0 0 0 0 0 0 0 0 1 877 1368 1662 1907 2044 1980 1774 1518 1452 1705 1320 1208 1094 943 823 588 339 194 129 415
0 0 0 0 0 0 0 0 0 0 0 0 0 1259 1426 1627 2012 1986 1531 878 160 1400 1255 1092 921 951 614 425 111 59 48 82
0 0 0 0 0 0 0 0 1 0 0 0 0 1125 1293 1685 1705 1784 1461 1010 1030 635 1130 1097 786 769 799 623 435 288 84 21
0 0 0 0 0 0 0 1 1 0 0 0 0 3 1274 1425 1649 1640 1594 1209 620 1097 1079 974 709 600 711 721 573 558 547 227
0 0 0 0 0 0 0 1 2 3 3 0 0 1 192 1158 1331 1794 1722 1413 1273 1078 227 787 800 781 813 768 539 497 642 318
0 0 0 0 0 0 1 2 3 4 3 4 0 0 126 412 908 1687 1731 1391 1196 1042 670 326 731 851 565 471 637 470 505 357
0 0 0 0 0 1 1 2 2 2 3 3 3 0 27 470 524 1290 1359 1395 1317 1178 963 728 583 530 169 558 699 531 519 356

GFSFLT2_con_mlcape_111.txt.gz
CAPE
1986 1813 1666 1485 1196 1135 1301 1580 1760 1763 1670 1621 1674 1508 1341 1293 1271 1309 1420 1682 1879 1988 1863 1617 1265 959 998 1088 1088 997 972 597
2300 2105 1901 1606 1324 1146 1192 1410 1675 1784 1770 1757 1824 1792 1667 1554 1417 1399 1387 1467 1534 2020 1798 1581 1400 989 872 1007 1056 1034 986 828
2609 2516 2038 1756 1402 1185 1126 1281 1467 1732 1920 1954 1953 1995 1935 1837 1685 1468 1411 1377 1433 1862 1624 1542 1444 1165 897 917 979 945 930 842
1873 2371 2272 1912 1726 1314 1005 1051 1158 1355 1612 1786 1953 1985 1942 1956 1823 1579 1398 1391 1597 1727 1636 1485 1363 1127 914 855 823 887 923 804
2037 2039 2288 2050 2307 1883 1363 928 934 1050 1200 1393 1636 1871 2024 1952 1841 1701 1566 1558 1650 1676 1607 1465 1291 1144 1017 853 769 803 858 817
2313 2125 1993 1912 1661 2305 2005 1417 978 936 1007 1297 1241 1404 1762 2187 2038 1847 1613 1702 1584 1500 1416 1400 1246 1226 1177 1062 1079 973 909 842
42 1152 1186 1515 1717 1843 2446 2133 1774 1453 1210 1318 1577 1406 1400 1763 2078 2065 1939 1820 1662 1569 1453 1353 1176 1177 1213 1080 1183 1029 1087 933
0 0 0 0 154 956 1485 1716 1921 2056 1969 1692 1771 1837 1676 1672 1907 1902 2029 1983 1789 1617 1514 1466 1438 1341 1225 1211 1163 1037 1022 884
0 0 0 0 0 0 0 242 1352 1314 1579 1826 1980 1929 2079 1883 1792 1797 1878 1922 1831 1595 1388 1403 1573 1487 1378 1204 1092 1026 945 869
0 0 0 0 0 0 0 0 0 0 1054 1304 1443 1768 1941 2231 1865 1776 1488 1724 1644 1633 1432 1366 1394 1415 1348 1236 1143 1038 991 883
0 0 0 0 0 0 0 0 0 0 0 325 1405 1478 1658 1698 1897 2036 1738 1510 1525 1502 1343 1275 1373 1341 1220 1176 1135 1085 995 899
0 0 0 0 0 0 0 0 0 0 0 0 59 1480 1645 1492 1424 1671 1812 1693 1485 1534 1451 1322 1291 1354 1257 1130 897 923 964 854
0 0 0 0 0 0 0 0 0 0 0 0 0 38 1206 1612 1645 1493 1409 1501 1523 1347 1450 1518 1321 1304 1155 962 708 764 778 723
0 0 0 0 0 0 0 0 0 0 0 0 0 0 0 742 1556 1615 1682 1393 1352 1218 1090 1158 1206 1274 1100 784 681 540 546 691
0 0 0 0 0 0 0 0 0 0 0 0 0 0 0 0 555 1424 1709 1527 1250 1058 999 695 593 929 693 545 404 296 177 154
0 0 0 0 0 0 0 0 0 0 0 0 0 0 0 0 4 786 1149 1448 1118 823 437 17 0 9 437 509 155 49 58 25
0 0 0 0 0 0 0 0 1 1 1 1 0 0 0 0 0 31 708 957 902 627 162 0 25 273 0 167 456 218 114 41
0 0 0 0 0 0 0 1 1 3 2 4 3 1 0 0 0 0 521 596 674 646 449 210 326 293 257 537 481 431 476 279
0 0 0 0 0 0 1 1 3 4 5 4 4 3 4 2 0 0 56 646 488 500 641 624 546 549 631 487 431 402 329 286
0 0 0 0 0 1 0 0 2 3 3 3 3 3 3 1 2 0 4 103 324 494 601 435 433 590 598 543 516 399 320 331

GFSFLT2_con_mlcape_114.txt.gz
CAPE
1903 1762 1441 1146 1122 1186 1263 1377 1456 1528 1580 1644 1581 1120 988 1045 1054 1073 1098 1282 1788 2011 1859 1592 1532 1418 1218 1153 1040 857 725 622
1715 1749 1635 1504 1285 1213 1262 1376 1496 1578 1657 1687 1655 1367 1116 1076 1072 1160 1158 1245 1788 1933 1841 1750 1415 1142 953 1021 1047 962 765 618
1866 1844 1798 1676 1516 1292 1299 1385 1535 1707 1727 1697 1658 1704 1505 1353 1260 1204 1239 1269 1486 1641 1836 1703 1449 1272 1013 902 957 926 872 727
2192 2111 2027 1709 1601 1403 1233 1388 1497 1664 1829 1818 1827 1792 1751 1711 1561 1373 1315 1216 1238 1374 1735 1602 1446 1283 1094 935 830 847 821 735
2330 2174 2155 1765 1690 1305 1091 1083 1165 1391 1587 1716 1782 1813 1852 1882 1756 1617 1426 1335 1267 1329 1598 1561 1389 1216 1038 918 819 767 757 749
1988 2064 2097 2069 2014 1730 1331 975 914 956 1083 1358 1450 1570 1642 1757 1694 1591 1421 1348 1187 1188 1368 1457 1321 1229 1058 914 873 764 735 710
1739 1589 1161 1637 2031 2068 2102 1814 1149 855 834 1022 1160 1171 1211 1538 1633 1521 1429 1358 1311 1189 1236 1295 1283 1206 1118 1069 973 925 952 820
0 0 0 0 57 55 410 1185 1439 1170 1068 905 1143 1076 1094 1185 1553 1753 1730 1556 1382 1326 1249 1250 1248 1238 1081 1027 1089 1010 1053 921
0 0 0 0 0 0 0 0 0 274 1294 1505 1349 1321 1320 1266 1188 1497 1877 1811 1689 1537 1392 1273 1264 1216 1131 994 1075 1030 1003 875
0 0 0 0 0 0 0 0 0 0 0 0 508 1526 1574 1379 1443 1280 1315 1870 1783 1711 1584 1390 1291 1247 1142 1122 1021 1045 1003 832
0 0 0 0 0 0 0 0 0 0 0 0 0 0 651 1265 1216 1046 1120 1247 1605 1693 1586 1440 1175 1101 1104 1115 1148 1037 905 794
0 0 0 0 0 0 0 0 0 0 0 0 0 0 0 310 1090 1097 924 817 961 1199 1489 1397 1258 1057 991 1024 1140 945 843 819
0 0 0 0 0 0 0 0 0 0 0 0 0 0 0 0 0 912 1084 984 968 902 880 1002 1058 1073 932 852 724 763 785 689
0 0 0 0 0 0 0 0 0 0 0 0 0 0 0 0 0 0 398 1075 1072 808 798 714 738 671 827 834 668 603 544 620
0 0 0 0 0 0 0 0 0 0 0 0 0 0 0 0 0 0 0 223 1016 1154 710 659 544 416 349 190 127 312 390 317
0 0 0 0 0 0 0 0 0 0 0 0 0 0 0 0 0 0 0 0 71 832 818 648 484 146 0 0 0 35 94 75
0 0 0 0 0 0 0 0 1 0 1 2 0 0 0 0 0 0 0 0 0 520 745 372 196 11 0 0 0 0 23 13
0 0 0 0 0 0 1 2 3 3 2 4 3 1 0 0 1 2 2 0 0 86 587 351 35 6 0 1 39 78 25 0
0 0 0 0 0 0 0 0 2 5 4 5 5 5 4 3 2 3 2 3 1 0 240 123 85 24 4 6 36 66 65 106
0 0 0 0 0 0 1 0 2 2 3 4 4 4 3 3 3 4 5 3 3 1 120 232 146 150 173 84 17 122 213 206

GFSFLT2_con_mlcape_117.txt.gz
CAPE
1708 1630 1506 1380 1262 1252 1313 1361 1337 1272 1252 1310 1184 920 926 975 1012 1031 1124 1693 1726 2033 1895 1597 1311 1220 1135 960 780 688 664 509
1540 1739 1645 1457 1270 1244 1292 1425 1406 1320 1311 1444 1471 1173 967 1006 1044 1122 1173 1400 1673 1932 1899 1621 1384 1266 1068 955 897 781 569 460
1632 1740 1659 1465 1288 1246 1337 1407 1471 1487 1531 1591 1606 1555 1204 1089 1136 1119 1164 1166 1418 1856 1934 1797 1496 1160 908 800 848 767 631 521
1681 1749 1698 1591 1589 1452 1355 1398 1603 1684 1736 1707 1705 1669 1465 1358 1226 1146 1199 1216 1287 1738 1922 1841 1656 1192 973 808 718 738 729 682
1563 1910 1903 1896 1788 1493 1351 1271 1375 1611 1695 1757 1709 1566 1563 1602 1454 1332 1295 1311 1319 1493 1726 1758 1639 1293 1047 860 679 640 649 675
1672 2317 2331 2089 1873 1592 1268 1256 1145 1211 1422 1649 1680 1648 1603 1653 1576 1497 1406 1345 1293 1239 1327 1548 1579 1360 1133 880 739 618 574 606
1626 1413 1602 1892 1872 1688 1797 1265 993 958 1003 1260 1489 1568 1577 1763 1659 1596 1452 1411 1353 1269 1221 1222 1404 1369 1139 945 770 661 600 542
11 9 18 14 5 1 45 196 602 1088 946 911 1120 1234 1251 1252 1373 1454 1378 1321 1310 1296 1205 1146 1174 1287 1184 1018 860 753 660 636
0 0 0 0 0 0 0 0 0 0 0 12 409 885 1070 1107 1107 1270 1335 1267 1285 1308 1245 1197 1148 1135 1200 1043 923 798 777 734
0 0 0 0 0 0 0 0 0 0 0 0 0 0 0 834 1147 1155 1185 1167 994 1127 1204 1293 1242 1160 1104 991 944 815 752 729
0 0 0 0 0 0 0 0 0 0 0 0 0 0 0 0 10 968 1127 964 852 797 1017 1429 1168 1153 1172 964 864 792 781 769
0 0 0 0 0 0 0 0 0 0 0 0 0 0 0 0 0 0 169 618 607 286 617 695 211 699 904 993 803 747 852 825
0 0 0 0 0 0 0 0 0 0 0 0 0 0 0 0 0 0 0 7 518 557 524 225 87 439 601 454 351 394 485 597
0 0 0 0 0 0 0 0 0 0 0 0 0 0 0 0 0 0 0 0 0 424 660 724 522 523 474 390 332 151 186 361
0 0 0 0 0 0 0 0 0 0 0 0 0 0 0 0 0 0 0 0 0 0 205 541 735 479 580 427 98 172 67 0
0 0 0 0 0 0 0 0 0 0 0 0 0 0 0 0 1 2 2 0 0 0 0 88 574 391 50 142 2 0 0 0
0 0 0 0 0 0 0 0 2 2 1 1 1 1 0 0 0 1 1 1 0 1 0 0 213 460 118 0 1 0 0 0
0 0 0 0 0 0 1 0 1 3 4 4 3 1 2 2 2 2 2 3 2 1 2 4 4 136 111 81 2 0 0 0
0 0 0 0 0 0 0 1 2 4 5 4 5 4 3 2 2 3 4 4 3 4 3 2 11 36 38 35 15 0 0 0
0 0 1 1 1 3 0 1 2 2 2 2 3 3 3 2 3 3 3 4 5 4 4 2 2 13 2 0 0 2 10 33

GFSFLT2_con_mlcape_120.txt.gz
CAPE
1581 1545 1601 1585 1496 1358 1289 1355 1320 1205 1144 1079 1011 1038 1033 1024 1160 1302 1252 1166 1485 1451 1269 1502 1417 1170 915 688 583 572 496 452
1474 1529 1652 1621 1524 1500 1406 1388 1417 1402 1359 1311 1251 1149 1175 1178 1043 1101 1173 1275 1643 1748 1769 1620 1380 1114 995 756 638 620 538 389
1540 1590 1661 1611 1532 1442 1521 1548 1515 1491 1481 1509 1539 1470 1274 1363 1346 1250 1228 1307 1581 1672 1811 1630 1309 1155 1007 830 740 641 570 362
1433 1584 1697 1617 1559 1423 1404 1450 1587 1599 1599 1581 1624 1681 1537 1374 1345 1314 1339 1262 1405 1554 1742 1711 1489 1189 978 809 667 619 602 476
1480 1652 1659 1656 1725 1609 1499 1471 1486 1554 1623 1619 1678 1631 1530 1460 1401 1310 1256 1303 1253 1327 1669 1730 1591 1373 913 719 627 596 589 600
1274 1828 1883 1888 1839 1731 1484 1437 1357 1419 1462 1486 1479 1251 1256 1309 1400 1297 1211 1189 1178 1222 1259 1591 1491 1486 1190 791 673 602 533 529
469 1913 2118 2133 2119 1922 1587 1449 1228 1164 1248 1381 1378 1298 1271 1148 1248 1247 1223 1223 1207 1116 1131 1192 1284 1279 1318 1016 772 644 557 513
0 634 1142 885 750 865 685 546 761 905 805 869 942 848 777 809 1023 1179 1150 1140 1210 1227 1159 1143 1085 1164 1207 1116 923 715 597 535
0 8 0 9 4 1 0 3 0 2 0 0 7 122 122 345 947 1024 1174 1103 950 1010 1078 1175 1110 1037 1084 1153 1005 827 653 541
0 0 0 0 0 0 0 0 0 0 0 0 0 0 0 0 0 75 854 1182 1097 935 923 944 987 906 930 1000 1009 919 803 675
0 0 0 0 0 0 0 0 0 0 0 0 0 0 0 0 0 0 0 91 899 887 816 807 863 779 870 866 704 754 709 664
0 0 0 0 0 0 0 0 0 0 0 0 0 0 0 0 0 0 0 0 74 388 518 599 394 417 503 121 429 590 512 404
0 0 0 0 0 0 0 0 0 0 0 0 0 0 0 0 0 0 0 0 0 0 357 182 16 85 123 51 148 133 114 301
0 0 0 0 0 0 0 0 0 0 0 0 0 0 0 0 0 0 0 0 0 0 0 369 282 133 23 34 0 0 0 160
0 0 0 0 0 0 0 0 0 0 0 0 0 0 0 0 0 1 1 1 0 0 0 0 273 295 326 267 105 43 28 13
0 0 0 0 0 0 0 0 0 0 0 0 0 0 0 0 1 0 1 1 1 1 1 0 0 64 196 290 154 27 81 8
0 0 0 0 0 0 2 1 1 2 1 2 1 0 1 0 1 2 2 2 2 1 1 2 1 0 11 4 1 10 0 0
0 0 0 0 1 0 1 2 2 2 3 2 3 1 1 1 1 2 2 3 3 2 3 2 2 1 5 15 3 4 0 0
0 0 0 1 1 0 0 1 2 3 3 4 5 4 3 2 1 2 3 2 3 3 4 4 3 2 1 5 19 2 1 0
0 0 0 0 1 0 2 2 1 1 1 2 2 2 2 1 1 2 2 2 3 3 4 3 3 2 2 0 24 17 1 0

GFSFLT2_con_mlcape_123.txt.gz
CAPE
1798 1918 1826 1626 1601 1579 1493 1388 1312 1244 1130 1066 1120 1284 1425 1407 1445 1556 1602 1486 1476 1657 1622 1097 816 722 521 515 544 566 922 1109
1863 1806 2047 2119 2049 1589 1475 1466 1444 1367 1331 1294 1201 1258 1293 1417 1476 1606 1665 1555 1363 1404 1385 1068 1120 1080 793 744 652 596 860 1005
1793 1830 1833 2015 2051 1972 1707 1585 1558 1568 1608 1500 1455 1712 1739 1724 1564 1573 1614 1523 1470 1720 1494 1472 1544 1326 1018 845 740 1014 1129 903
997 1763 1943 1956 1932 1954 2024 2042 2108 2082 1976 1979 1932 1846 1781 1691 1674 1361 1319 1404 1584 1884 1928 1811 1578 1628 1367 982 1101 1142 1122 1008
0 994 1911 2090 2094 2040 1910 1917 1910 1944 1999 1889 1807 1827 1847 1638 1574 1580 1721 1521 1690 1796 1952 1937 1955 1936 1598 1372 1198 1165 1062 1011
0 129 1915 2132 2175 2111 1834 1779 1715 1761 1719 1712 1745 1635 1540 1468 1443 1390 1450 1508 1610 1749 1702 1878 1970 1969 1938 1470 1236 1093 1004 973
0 210 1644 2196 2210 2196 2062 1891 1560 1496 1532 1520 1597 1460 1414 1373 1219 1307 1460 1350 1286 1327 1478 1454 1533 1706 1800 1730 1427 1224 1142 1107
0 0 188 1650 1895 1912 1607 1460 1244 1024 859 987 1317 1210 1041 1098 1152 1146 1261 1314 1203 1246 1254 1266 1281 1306 1296 1436 1617 1408 1255 1159
0 0 0 0 3 75 181 239 271 280 114 31 92 147 217 591 886 788 1019 1190 958 963 855 1103 1192 1139 1127 1024 1131 1227 1265 1134
0 0 0 0 0 0 0 0 0 0 0 0 0 0 0 0 1 12 75 411 1159 1132 907 683 666 917 1056 1168 970 980 1001 1082
0 0 0 0 0 0 0 0 0 0 0 0 0 0 0 0 0 0 0 0 15 797 1168 874 907 928 1034 1036 967 966 886 769
0 0 0 0 0 0 0 0 0 0 0 0 0 0 0 0 0 0 0 0 0 13 177 565 930 686 804 814 902 718 726 570
0 0 0 0 0 0 0 0 0 0 0 0 0 0 0 0 0 0 0 0 0 0 0 72 450 610 645 303 29 123 100 132
0 0 0 0 0 0 0 0 0 0 0 0 0 0 0 0 1 1 2 0 0 0 0 0 189 239 347 238 53 53 5 43
0 0 0 0 0 0 0 0 0 0 0 0 0 0 1 2 1 1 1 2 1 0 1 1 0 136 249 187 21 0 41 0
0 0 1 1 1 0 0 0 0 1 1 0 0 1 3 0 1 2 3 3 2 2 2 1 1 1 17 270 250 111 62 45
0 0 0 1 1 1 2 0 0 1 3 1 1 2 1 2 2 2 3 3 3 3 2 2 2 1 2 5 189 211 60 26
0 0 0 0 0 1 0 3 3 2 1 1 1 1 1 0 2 2 2 2 4 3 4 2 1 2 1 5 2 26 15 11
1 1 2 1 1 0 1 1 1 1 2 2 2 0 1 2 1 2 2 2 2 3 3 3 3 3 2 2 2 2 40 19
1 1 1 1 1 1 1 5 3 2 1 1 2 2 3 2 1 1 1 1 1 2 2 2 2 2 2 2 2 5 1 30

GFSFLT2_con_mlcape_126.txt.gz
CAPE
3043 3114 2632 1756 1890 1915 1810 1617 1294 1073 941 1197 1554 1815 1920 1868 1758 1794 2028 2140 2143 2066 2102 1984 1638 1117 795 464 349 487 985 1004
2975 3144 3258 3169 2959 1969 1805 1781 1604 1409 1296 1142 1206 1474 1668 1690 1635 1733 1920 2057 2101 2151 2141 1923 1382 898 776 581 520 533 806 988
660 2577 2991 3223 3233 3008 1982 1619 1680 1646 1617 1512 1464 1619 1578 1741 1803 1853 1755 1849 1765 1770 1806 1619 1166 944 1055 872 769 903 925 967
0 105 1995 2985 2924 2892 2925 2890 2517 2366 2313 2428 2274 2234 2172 1918 1711 1606 1846 1822 1795 1651 1630 1555 1295 1575 1461 1155 1179 940 1145 1034
0 0 563 2493 2563 2835 2914 2835 2782 2830 2860 2797 2566 2415 2388 2205 1958 2002 1771 1419 1699 1559 1846 1960 1934 1757 1415 1328 1146 1206 1142 1041
0 3 57 1540 2544 2872 2926 2833 2786 2730 2706 2653 2516 2315 2269 2333 2059 1847 1797 1788 1633 1654 1583 1726 1822 1887 1902 1536 1585 1327 1014 929
0 0 203 1007 2341 2826 3139 3072 2666 2627 2582 2542 2203 2109 2252 2075 1818 1632 1634 1701 1637 1635 1591 1493 1639 1749 1818 1775 1834 1616 1317 1016
0 0 0 0 270 1557 2433 2641 2635 2231 1865 2072 2131 1832 1827 1889 1802 1629 1520 1566 1471 1422 1413 1541 1321 1473 1717 1864 1743 1669 1580 1434
0 0 0 0 0 0 9 36 318 342 262 42 196 344 686 1450 1911 1763 1698 1763 1474 1395 1416 1366 1322 1299 1292 1496 1870 1809 1426 1388
0 0 0 0 0 0 0 0 0 0 0 0 0 0 0 2 170 487 387 405 618 1458 1385 1331 1213 1105 1113 1200 1372 1736 1723 1457
0 0 0 0 0 0 0 0 0 0 0 0 0 0 0 0 0 0 3 8 86 296 845 1172 1071 1060 1029 938 982 1199 1507 1282
0 0 0 0 0 0 0 0 0 0 0 0 0 0 0 0 0 0 0 0 8 38 100 318 687 1124 962 805 650 772 1093 981
0 0 0 0 0 0 0 0 0 0 0 0 0 0 1 0 0 0 0 0 0 1 1 14 492 641 516 590 606 578 288 439
0 0 0 0 0 0 0 0 0 0 0 0 0 0 1 2 3 1 0 1 2 0 0 0 1 298 430 499 222 174 108 38
0 0 0 0 0 0 0 0 0 0 0 0 0 1 3 0 3 3 3 3 2 0 0 3 1 0 226 614 218 147 189 18
0 0 0 0 0 0 0 0 0 0 0 0 0 0 2 2 4 4 5 4 4 4 4 4 4 3 1 34 456 273 63 28
0 0 0 0 1 0 0 0 0 0 0 0 0 0 1 2 4 1 5 4 4 4 4 3 2 4 5 4 0 128 361 371
0 0 0 1 1 1 2 1 1 0 0 0 0 0 0 2 3 1 4 5 4 4 4 4 3 3 2 4 6 3 13 63
0 0 0 0 0 1 2 1 0 0 1 1 0 0 1 3 2 3 3 2 3 4 3 3 3 3 3 3 2 5 1 7
1 0 0 0 1 1 2 3 2 3 3 2 2 1 4 1 2 4 4 4 4 4 3 4 6 1 4 3 3 3 4 6